Time,TemperatureF,DewpointF,PressureIn,WindDirection,WindDirectionDegrees,WindSpeedMPH,WindSpeedGustMPH,Humidity,HourlyPrecipIn,Conditions,Clouds,dailyrainin,SoftwareType,DateUTC
2013-03-12 00:02:00,52.9,29.2,30.01,North,0,0.0,0.0,40,0.00,,,0.00,Wunderground v.1.15,2013-03-12 05:02:00,
2013-03-12 00:03:00,52.9,29.2,30.01,North,0,0.0,0.0,40,0.00,,,0.00,Wunderground v.1.15,2013-03-12 05:03:00,
2013-03-12 00:05:00,52.9,29.8,30.01,North,0,0.0,0.0,41,0.00,,,0.00,Wunderground v.1.15,2013-03-12 05:05:00,
2013-03-12 00:06:00,52.9,29.8,30.01,North,0,0.0,0.0,41,0.00,,,0.00,Wunderground v.1.15,2013-03-12 05:06:00,
2013-03-12 00:10:00,52.8,30.3,30.01,North,0,0.0,0.0,42,0.00,,,0.00,Wunderground v.1.15,2013-03-12 05:10:00,
2013-03-12 00:12:00,52.6,29.5,30.01,North,0,0.0,0.0,41,0.00,,,0.00,Wunderground v.1.15,2013-03-12 05:12:00,
2013-03-12 00:15:00,52.5,29.5,30.01,North,0,0.0,0.0,41,0.00,,,0.00,Wunderground v.1.15,2013-03-12 05:15:00,
2013-03-12 00:16:00,52.5,30.0,30.01,North,0,0.0,0.0,42,0.00,,,0.00,Wunderground v.1.15,2013-03-12 05:16:00,
2013-03-12 00:21:00,52.3,29.9,30.01,North,0,0.0,0.0,42,0.00,,,0.00,Wunderground v.1.15,2013-03-12 05:21:00,
2013-03-12 00:22:00,52.3,29.9,30.01,North,0,0.0,1.0,42,0.00,,,0.00,Wunderground v.1.15,2013-03-12 05:22:00,
2013-03-12 00:23:00,52.2,29.8,30.01,North,0,0.0,1.0,42,0.00,,,0.00,Wunderground v.1.15,2013-03-12 05:23:00,
2013-03-12 00:27:00,52.2,29.8,30.01,North,0,0.0,1.0,42,0.00,,,0.00,Wunderground v.1.15,2013-03-12 05:27:00,
2013-03-12 00:29:00,52.0,29.6,30.01,North,0,0.0,1.0,42,0.00,,,0.00,Wunderground v.1.15,2013-03-12 05:29:00,
2013-03-12 00:31:00,52.0,29.0,30.00,North,0,0.0,0.0,41,0.00,,,0.00,Wunderground v.1.15,2013-03-12 05:31:00,
2013-03-12 00:33:00,52.0,29.0,30.00,North,0,0.0,0.0,41,0.00,,,0.00,Wunderground v.1.15,2013-03-12 05:33:00,
2013-03-12 00:37:00,51.9,28.9,30.00,North,0,0.0,0.0,41,0.00,,,0.00,Wunderground v.1.15,2013-03-12 05:37:00,
2013-03-12 00:41:00,51.7,28.7,30.00,North,0,0.0,1.0,41,0.00,,,0.00,Wunderground v.1.15,2013-03-12 05:41:00,
2013-03-12 00:42:00,51.7,28.7,30.00,North,0,0.0,1.0,41,0.00,,,0.00,Wunderground v.1.15,2013-03-12 05:42:00,
2013-03-12 00:46:00,51.7,28.7,30.00,North,0,0.0,1.0,41,0.00,,,0.00,Wunderground v.1.15,2013-03-12 05:46:00,
2013-03-12 00:47:00,51.7,28.7,30.00,North,0,0.0,1.0,41,0.00,,,0.00,Wunderground v.1.15,2013-03-12 05:47:00,
2013-03-12 00:48:00,51.7,28.7,30.00,North,0,0.0,1.0,41,0.00,,,0.00,Wunderground v.1.15,2013-03-12 05:48:00,
2013-03-12 00:53:00,51.7,28.7,30.00,North,0,0.0,0.0,41,0.00,,,0.00,Wunderground v.1.15,2013-03-12 05:53:00,
2013-03-12 00:55:00,51.6,28.6,30.00,North,0,0.0,0.0,41,0.00,,,0.00,Wunderground v.1.15,2013-03-12 05:55:00,
2013-03-12 00:59:00,51.6,28.6,30.00,North,0,0.0,2.0,41,0.00,,,0.00,Wunderground v.1.15,2013-03-12 05:59:00,
2013-03-12 01:03:00,51.6,28.0,30.01,North,0,0.0,0.0,40,0.00,,,0.00,Wunderground v.1.15,2013-03-12 06:03:00,
2013-03-12 01:04:00,51.6,28.0,30.01,North,0,0.0,0.0,40,0.00,,,0.00,Wunderground v.1.15,2013-03-12 06:04:00,
2013-03-12 01:05:00,51.6,28.0,30.01,North,0,0.0,0.0,40,0.00,,,0.00,Wunderground v.1.15,2013-03-12 06:05:00,
2013-03-12 01:06:00,51.6,28.0,30.01,North,0,0.0,0.0,40,0.00,,,0.00,Wunderground v.1.15,2013-03-12 06:06:00,
2013-03-12 01:09:00,51.6,28.6,30.01,North,0,0.0,0.0,41,0.00,,,0.00,Wunderground v.1.15,2013-03-12 06:09:00,
2013-03-12 01:13:00,51.3,28.4,30.01,North,0,0.0,2.0,41,0.00,,,0.00,Wunderground v.1.15,2013-03-12 06:13:00,
2013-03-12 01:14:00,51.3,28.4,30.01,North,0,0.0,2.0,41,0.00,,,0.00,Wunderground v.1.15,2013-03-12 06:14:00,
2013-03-12 01:17:00,51.1,27.6,30.00,North,0,0.0,2.0,40,0.00,,,0.00,Wunderground v.1.15,2013-03-12 06:17:00,
2013-03-12 01:20:00,51.0,28.1,30.00,North,0,0.0,2.0,41,0.00,,,0.00,Wunderground v.1.15,2013-03-12 06:20:00,
2013-03-12 01:22:00,51.0,28.1,30.00,North,0,0.0,1.0,41,0.00,,,0.00,Wunderground v.1.15,2013-03-12 06:22:00,
2013-03-12 01:25:00,51.0,27.5,30.00,North,0,0.0,2.0,40,0.00,,,0.00,Wunderground v.1.15,2013-03-12 06:25:00,
2013-03-12 01:27:00,51.0,26.9,30.00,North,0,0.0,2.0,39,0.00,,,0.00,Wunderground v.1.15,2013-03-12 06:27:00,
2013-03-12 01:28:00,51.0,26.9,30.00,North,0,0.0,2.0,39,0.00,,,0.00,Wunderground v.1.15,2013-03-12 06:28:00,
2013-03-12 01:30:00,51.0,27.5,30.00,North,0,0.0,2.0,40,0.00,,,0.00,Wunderground v.1.15,2013-03-12 06:30:00,
2013-03-12 01:34:00,50.8,27.9,30.01,North,0,0.0,0.0,41,0.00,,,0.00,Wunderground v.1.15,2013-03-12 06:34:00,
2013-03-12 01:35:00,50.8,27.9,30.01,North,0,0.0,0.0,41,0.00,,,0.00,Wunderground v.1.15,2013-03-12 06:35:00,
2013-03-12 01:37:00,50.7,27.8,30.01,North,0,0.0,0.0,41,0.00,,,0.00,Wunderground v.1.15,2013-03-12 06:37:00,
2013-03-12 01:39:00,50.7,27.8,30.01,North,0,0.0,0.0,41,0.00,,,0.00,Wunderground v.1.15,2013-03-12 06:39:00,
2013-03-12 01:40:00,50.5,27.0,30.01,North,0,0.0,3.0,40,0.00,,,0.00,Wunderground v.1.15,2013-03-12 06:40:00,
2013-03-12 01:42:00,50.5,27.7,30.01,North,0,0.0,3.0,41,0.00,,,0.00,Wunderground v.1.15,2013-03-12 06:42:00,
2013-03-12 01:44:00,50.4,27.0,30.01,North,0,0.0,3.0,40,0.00,,,0.00,Wunderground v.1.15,2013-03-12 06:44:00,
2013-03-12 01:48:00,50.4,26.3,30.01,North,0,0.0,3.0,39,0.00,,,0.00,Wunderground v.1.15,2013-03-12 06:48:00,
2013-03-12 01:49:00,50.4,27.0,30.01,North,0,0.0,3.0,40,0.00,,,0.00,Wunderground v.1.15,2013-03-12 06:49:00,
2013-03-12 01:54:00,50.2,26.2,30.01,North,0,0.0,0.0,39,0.00,,,0.00,Wunderground v.1.15,2013-03-12 06:54:00,
2013-03-12 01:55:00,50.2,26.8,30.01,North,0,0.0,0.0,40,0.00,,,0.00,Wunderground v.1.15,2013-03-12 06:55:00,
2013-03-12 01:56:00,50.2,26.8,30.01,North,0,0.0,0.0,40,0.00,,,0.00,Wunderground v.1.15,2013-03-12 06:56:00,
2013-03-12 02:00:00,50.1,26.7,30.01,North,0,0.0,0.0,40,0.00,,,0.00,Wunderground v.1.15,2013-03-12 07:00:00,
2013-03-12 02:02:00,50.1,27.9,30.01,North,0,0.0,0.0,42,0.00,,,0.00,Wunderground v.1.15,2013-03-12 07:02:00,
2013-03-12 02:05:00,49.9,26.5,30.01,North,0,0.0,0.0,40,0.00,,,0.00,Wunderground v.1.15,2013-03-12 07:05:00,
2013-03-12 02:07:00,49.8,26.4,30.01,North,0,0.0,0.0,40,0.00,,,0.00,Wunderground v.1.15,2013-03-12 07:07:00,
2013-03-12 02:09:00,49.8,27.6,30.01,North,0,0.0,0.0,42,0.00,,,0.00,Wunderground v.1.15,2013-03-12 07:09:00,
2013-03-12 02:14:00,49.5,27.3,30.01,North,0,0.0,0.0,42,0.00,,,0.00,Wunderground v.1.15,2013-03-12 07:14:00,
2013-03-12 02:15:00,49.4,27.2,30.01,North,0,0.0,0.0,42,0.00,,,0.00,Wunderground v.1.15,2013-03-12 07:15:00,
2013-03-12 02:16:00,49.4,27.2,30.01,North,0,0.0,0.0,42,0.00,,,0.00,Wunderground v.1.15,2013-03-12 07:16:00,
2013-03-12 02:20:00,49.1,27.5,30.01,North,0,0.0,0.0,43,0.00,,,0.00,Wunderground v.1.15,2013-03-12 07:20:00,
2013-03-12 02:22:00,49.1,28.1,30.01,North,0,0.0,0.0,44,0.00,,,0.00,Wunderground v.1.15,2013-03-12 07:22:00,
2013-03-12 02:23:00,49.1,28.1,30.01,North,0,0.0,0.0,44,0.00,,,0.00,Wunderground v.1.15,2013-03-12 07:23:00,
2013-03-12 02:24:00,48.9,28.5,30.01,North,0,0.0,0.0,45,0.00,,,0.00,Wunderground v.1.15,2013-03-12 07:24:00,
2013-03-12 02:25:00,48.9,27.9,30.01,North,0,0.0,0.0,44,0.00,,,0.00,Wunderground v.1.15,2013-03-12 07:25:00,
2013-03-12 02:29:00,48.8,28.4,30.01,North,0,0.0,0.0,45,0.00,,,0.00,Wunderground v.1.15,2013-03-12 07:29:00,
2013-03-12 02:30:00,48.6,28.2,30.01,North,0,0.0,0.0,45,0.00,,,0.00,Wunderground v.1.15,2013-03-12 07:30:00,
2013-03-12 02:31:00,48.5,27.6,30.01,North,0,0.0,0.0,44,0.00,,,0.00,Wunderground v.1.15,2013-03-12 07:31:00,
2013-03-12 02:35:00,48.5,27.0,30.01,North,0,0.0,0.0,43,0.00,,,0.00,Wunderground v.1.15,2013-03-12 07:35:00,
2013-03-12 02:37:00,48.5,27.6,30.01,North,0,0.0,0.0,44,0.00,,,0.00,Wunderground v.1.15,2013-03-12 07:37:00,
2013-03-12 02:39:00,48.5,27.0,30.01,North,0,0.0,0.0,43,0.00,,,0.00,Wunderground v.1.15,2013-03-12 07:39:00,
2013-03-12 02:40:00,48.5,26.4,30.01,North,0,0.0,0.0,42,0.00,,,0.00,Wunderground v.1.15,2013-03-12 07:40:00,
2013-03-12 02:42:00,48.6,25.9,30.01,North,0,0.0,0.0,41,0.00,,,0.00,Wunderground v.1.15,2013-03-12 07:42:00,
2013-03-12 02:44:00,48.8,25.5,30.01,North,0,0.0,1.0,40,0.00,,,0.00,Wunderground v.1.15,2013-03-12 07:44:00,
2013-03-12 02:45:00,49.1,25.8,30.01,North,0,0.0,2.0,40,0.00,,,0.00,Wunderground v.1.15,2013-03-12 07:45:00,
2013-03-12 02:50:00,49.6,25.6,30.01,North,0,1.0,2.0,39,0.00,,,0.00,Wunderground v.1.15,2013-03-12 07:50:00,
2013-03-12 02:51:00,49.6,25.6,30.01,North,0,1.0,1.0,39,0.00,,,0.00,Wunderground v.1.15,2013-03-12 07:51:00,
2013-03-12 02:52:00,49.6,25.6,30.01,North,0,1.0,1.0,39,0.00,,,0.00,Wunderground v.1.15,2013-03-12 07:52:00,
2013-03-12 02:54:00,49.6,26.8,30.01,North,0,1.0,1.0,41,0.00,,,0.00,Wunderground v.1.15,2013-03-12 07:54:00,
2013-03-12 03:00:00,49.4,26.1,30.01,North,0,0.0,2.0,40,0.00,,,0.00,Wunderground v.1.15,2013-03-12 08:00:00,
2013-03-12 03:01:00,49.4,26.1,30.01,North,0,0.0,2.0,40,0.00,,,0.00,Wunderground v.1.15,2013-03-12 08:01:00,
2013-03-12 03:02:00,49.4,25.4,30.01,North,0,0.0,2.0,39,0.00,,,0.00,Wunderground v.1.15,2013-03-12 08:02:00,
2013-03-12 03:05:00,49.5,25.5,30.01,North,0,0.0,2.0,39,0.00,,,0.00,Wunderground v.1.15,2013-03-12 08:05:00,
2013-03-12 03:07:00,49.4,25.4,30.01,North,0,0.0,2.0,39,0.00,,,0.00,Wunderground v.1.15,2013-03-12 08:07:00,
2013-03-12 03:09:00,49.4,25.4,30.01,North,0,0.0,2.0,39,0.00,,,0.00,Wunderground v.1.15,2013-03-12 08:09:00,
2013-03-12 03:10:00,49.4,24.8,30.01,North,0,0.0,0.0,38,0.00,,,0.00,Wunderground v.1.15,2013-03-12 08:10:00,
2013-03-12 03:11:00,49.5,24.9,30.01,North,0,0.0,0.0,38,0.00,,,0.00,Wunderground v.1.15,2013-03-12 08:11:00,
2013-03-12 03:13:00,49.5,24.9,30.01,North,0,0.0,0.0,38,0.00,,,0.00,Wunderground v.1.15,2013-03-12 08:13:00,
2013-03-12 03:15:00,49.5,24.9,30.00,North,0,0.0,0.0,38,0.00,,,0.00,Wunderground v.1.15,2013-03-12 08:15:00,
2013-03-12 03:16:00,49.4,25.4,30.00,North,0,0.0,0.0,39,0.00,,,0.00,Wunderground v.1.15,2013-03-12 08:16:00,
2013-03-12 03:18:00,49.4,24.8,30.00,North,0,0.0,0.0,38,0.00,,,0.00,Wunderground v.1.15,2013-03-12 08:18:00,
2013-03-12 03:20:00,49.4,24.8,30.00,North,0,0.0,0.0,38,0.00,,,0.00,Wunderground v.1.15,2013-03-12 08:20:00,
2013-03-12 03:23:00,49.4,25.4,30.00,North,0,0.0,0.0,39,0.00,,,0.00,Wunderground v.1.15,2013-03-12 08:23:00,
2013-03-12 03:25:00,49.2,25.3,30.00,North,0,0.0,0.0,39,0.00,,,0.00,Wunderground v.1.15,2013-03-12 08:25:00,
2013-03-12 03:28:00,49.1,25.8,30.00,North,0,0.0,0.0,40,0.00,,,0.00,Wunderground v.1.15,2013-03-12 08:28:00,
2013-03-12 03:30:00,49.1,26.4,30.00,North,0,0.0,0.0,41,0.00,,,0.00,Wunderground v.1.15,2013-03-12 08:30:00,
2013-03-12 03:31:00,48.9,26.2,30.00,North,0,0.0,0.0,41,0.00,,,0.00,Wunderground v.1.15,2013-03-12 08:31:00,
2013-03-12 03:33:00,48.8,26.1,30.00,North,0,0.0,0.0,41,0.00,,,0.00,Wunderground v.1.15,2013-03-12 08:33:00,
2013-03-12 03:35:00,48.6,25.9,30.00,North,0,0.0,0.0,41,0.00,,,0.00,Wunderground v.1.15,2013-03-12 08:35:00,
2013-03-12 03:38:00,48.5,25.8,30.00,North,0,0.0,0.0,41,0.00,,,0.00,Wunderground v.1.15,2013-03-12 08:38:00,
2013-03-12 03:40:00,48.3,26.2,30.00,North,0,0.0,0.0,42,0.00,,,0.00,Wunderground v.1.15,2013-03-12 08:40:00,
2013-03-12 03:41:00,48.2,26.2,30.00,North,0,0.0,0.0,42,0.00,,,0.00,Wunderground v.1.15,2013-03-12 08:41:00,
2013-03-12 03:44:00,48.0,26.5,30.00,North,0,0.0,0.0,43,0.00,,,0.00,Wunderground v.1.15,2013-03-12 08:44:00,
2013-03-12 03:46:00,47.9,26.5,30.00,North,0,0.0,0.0,43,0.00,,,0.00,Wunderground v.1.15,2013-03-12 08:46:00,
2013-03-12 03:47:00,47.9,26.5,30.00,North,0,0.0,0.0,43,0.00,,,0.00,Wunderground v.1.15,2013-03-12 08:47:00,
2013-03-12 03:50:00,47.7,26.3,30.00,North,0,0.0,0.0,43,0.00,,,0.00,Wunderground v.1.15,2013-03-12 08:50:00,
2013-03-12 03:51:00,47.6,26.7,30.00,North,0,0.0,0.0,44,0.00,,,0.00,Wunderground v.1.15,2013-03-12 08:51:00,
2013-03-12 03:52:00,47.6,26.7,30.00,North,0,0.0,0.0,44,0.00,,,0.00,Wunderground v.1.15,2013-03-12 08:52:00,
2013-03-12 03:53:00,47.6,27.3,30.00,North,0,0.0,0.0,45,0.00,,,0.00,Wunderground v.1.15,2013-03-12 08:53:00,
2013-03-12 03:58:00,47.3,27.5,30.00,North,0,0.0,0.0,46,0.00,,,0.00,Wunderground v.1.15,2013-03-12 08:58:00,
2013-03-12 04:00:00,47.1,27.4,30.00,North,0,0.0,0.0,46,0.00,,,0.00,Wunderground v.1.15,2013-03-12 09:00:00,
2013-03-12 04:05:00,46.8,27.6,30.00,North,0,0.0,0.0,47,0.00,,,0.00,Wunderground v.1.15,2013-03-12 09:05:00,
2013-03-12 04:07:00,46.8,27.6,30.00,North,0,0.0,0.0,47,0.00,,,0.00,Wunderground v.1.15,2013-03-12 09:07:00,
2013-03-12 04:11:00,46.5,27.3,30.00,North,0,0.0,0.0,47,0.00,,,0.00,Wunderground v.1.15,2013-03-12 09:11:00,
2013-03-12 04:15:00,46.4,27.2,30.00,North,0,0.0,0.0,47,0.00,,,0.00,Wunderground v.1.15,2013-03-12 09:15:00,
2013-03-12 04:16:00,46.4,27.8,30.00,North,0,0.0,0.0,48,0.00,,,0.00,Wunderground v.1.15,2013-03-12 09:16:00,
2013-03-12 04:17:00,46.4,27.8,30.00,North,0,0.0,0.0,48,0.00,,,0.00,Wunderground v.1.15,2013-03-12 09:17:00,
2013-03-12 04:18:00,46.4,27.8,30.00,North,0,0.0,0.0,48,0.00,,,0.00,Wunderground v.1.15,2013-03-12 09:18:00,
2013-03-12 04:22:00,46.2,27.1,30.00,North,0,0.0,0.0,47,0.00,,,0.00,Wunderground v.1.15,2013-03-12 09:22:00,
2013-03-12 04:23:00,46.2,27.1,30.00,North,0,0.0,0.0,47,0.00,,,0.00,Wunderground v.1.15,2013-03-12 09:23:00,
2013-03-12 04:24:00,46.2,27.1,30.00,North,0,0.0,0.0,47,0.00,,,0.00,Wunderground v.1.15,2013-03-12 09:24:00,
2013-03-12 04:25:00,46.2,27.1,30.00,North,0,0.0,0.0,47,0.00,,,0.00,Wunderground v.1.15,2013-03-12 09:25:00,
2013-03-12 04:28:00,46.1,27.5,30.00,North,0,0.0,0.0,48,0.00,,,0.00,Wunderground v.1.15,2013-03-12 09:28:00,
2013-03-12 04:30:00,46.1,27.5,30.00,North,0,0.0,0.0,48,0.00,,,0.00,Wunderground v.1.15,2013-03-12 09:30:00,
2013-03-12 04:32:00,46.0,27.4,30.00,North,0,0.0,0.0,48,0.00,,,0.00,Wunderground v.1.15,2013-03-12 09:32:00,
2013-03-12 04:34:00,46.0,27.4,30.00,North,0,0.0,0.0,48,0.00,,,0.00,Wunderground v.1.15,2013-03-12 09:34:00,
2013-03-12 04:37:00,45.8,27.2,30.00,North,0,0.0,0.0,48,0.00,,,0.00,Wunderground v.1.15,2013-03-12 09:37:00,
2013-03-12 04:38:00,45.8,27.2,30.00,North,0,0.0,0.0,48,0.00,,,0.00,Wunderground v.1.15,2013-03-12 09:38:00,
2013-03-12 04:40:00,45.8,27.2,30.00,North,0,0.0,0.0,48,0.00,,,0.00,Wunderground v.1.15,2013-03-12 09:40:00,
2013-03-12 04:42:00,45.8,27.2,30.00,North,0,0.0,0.0,48,0.00,,,0.00,Wunderground v.1.15,2013-03-12 09:42:00,
2013-03-12 04:43:00,45.8,26.7,30.00,North,0,0.0,0.0,47,0.00,,,0.00,Wunderground v.1.15,2013-03-12 09:43:00,
2013-03-12 04:44:00,45.8,26.7,30.00,North,0,0.0,0.0,47,0.00,,,0.00,Wunderground v.1.15,2013-03-12 09:44:00,
2013-03-12 04:47:00,45.8,27.2,30.00,North,0,0.0,0.0,48,0.00,,,0.00,Wunderground v.1.15,2013-03-12 09:47:00,
2013-03-12 04:50:00,45.8,27.7,30.00,North,0,0.0,0.0,49,0.00,,,0.00,Wunderground v.1.15,2013-03-12 09:50:00,
2013-03-12 04:51:00,45.8,27.7,30.00,North,0,0.0,0.0,49,0.00,,,0.00,Wunderground v.1.15,2013-03-12 09:51:00,
2013-03-12 04:55:00,45.7,27.1,30.00,North,0,0.0,0.0,48,0.00,,,0.00,Wunderground v.1.15,2013-03-12 09:55:00,
2013-03-12 04:56:00,45.7,27.1,30.00,North,0,0.0,0.0,48,0.00,,,0.00,Wunderground v.1.15,2013-03-12 09:56:00,
2013-03-12 04:57:00,45.7,26.6,30.00,North,0,0.0,0.0,47,0.00,,,0.00,Wunderground v.1.15,2013-03-12 09:57:00,
2013-03-12 05:00:00,45.7,26.6,30.00,North,0,0.0,0.0,47,0.00,,,0.00,Wunderground v.1.15,2013-03-12 10:00:00,
2013-03-12 05:01:00,45.7,26.6,30.00,North,0,0.0,0.0,47,0.00,,,0.00,Wunderground v.1.15,2013-03-12 10:01:00,
2013-03-12 05:04:00,45.7,27.1,30.00,North,0,0.0,0.0,48,0.00,,,0.00,Wunderground v.1.15,2013-03-12 10:04:00,
2013-03-12 05:05:00,45.5,26.9,30.00,North,0,0.0,0.0,48,0.00,,,0.00,Wunderground v.1.15,2013-03-12 10:05:00,
2013-03-12 05:06:00,45.5,26.9,30.00,North,0,0.0,0.0,48,0.00,,,0.00,Wunderground v.1.15,2013-03-12 10:06:00,
2013-03-12 05:08:00,45.5,27.4,30.00,North,0,0.0,0.0,49,0.00,,,0.00,Wunderground v.1.15,2013-03-12 10:08:00,
2013-03-12 05:11:00,45.5,26.9,30.00,North,0,0.0,0.0,48,0.00,,,0.00,Wunderground v.1.15,2013-03-12 10:11:00,
2013-03-12 05:13:00,45.5,26.9,30.00,North,0,0.0,0.0,48,0.00,,,0.00,Wunderground v.1.15,2013-03-12 10:13:00,
2013-03-12 05:14:00,45.5,26.9,30.00,North,0,0.0,0.0,48,0.00,,,0.00,Wunderground v.1.15,2013-03-12 10:14:00,
2013-03-12 05:15:00,45.5,26.9,30.00,North,0,0.0,0.0,48,0.00,,,0.00,Wunderground v.1.15,2013-03-12 10:15:00,
2013-03-12 05:20:00,45.5,25.9,30.01,North,0,0.0,0.0,46,0.00,,,0.00,Wunderground v.1.15,2013-03-12 10:20:00,
2013-03-12 05:21:00,45.5,26.9,30.01,North,0,0.0,0.0,48,0.00,,,0.00,Wunderground v.1.15,2013-03-12 10:21:00,
2013-03-12 05:26:00,45.4,26.8,30.01,North,0,0.0,0.0,48,0.00,,,0.00,Wunderground v.1.15,2013-03-12 10:26:00,
2013-03-12 05:28:00,45.4,26.8,30.01,North,0,0.0,0.0,48,0.00,,,0.00,Wunderground v.1.15,2013-03-12 10:28:00,
2013-03-12 05:30:00,45.2,26.7,30.01,North,0,0.0,0.0,48,0.00,,,0.00,Wunderground v.1.15,2013-03-12 10:30:00,
2013-03-12 05:34:00,45.4,26.3,30.01,North,0,0.0,0.0,47,0.00,,,0.00,Wunderground v.1.15,2013-03-12 10:34:00,
2013-03-12 05:36:00,45.4,26.8,30.01,North,0,0.0,0.0,48,0.00,,,0.00,Wunderground v.1.15,2013-03-12 10:36:00,
2013-03-12 05:37:00,45.2,26.7,30.01,North,0,0.0,0.0,48,0.00,,,0.00,Wunderground v.1.15,2013-03-12 10:37:00,
2013-03-12 05:40:00,45.2,26.1,30.01,North,0,0.0,0.0,47,0.00,,,0.00,Wunderground v.1.15,2013-03-12 10:40:00,
2013-03-12 05:42:00,45.2,26.7,30.01,North,0,0.0,0.0,48,0.00,,,0.00,Wunderground v.1.15,2013-03-12 10:42:00,
2013-03-12 05:43:00,45.2,27.2,30.01,North,0,0.0,0.0,49,0.00,,,0.00,Wunderground v.1.15,2013-03-12 10:43:00,
2013-03-12 05:47:00,45.1,26.6,30.01,North,0,0.0,0.0,48,0.00,,,0.00,Wunderground v.1.15,2013-03-12 10:47:00,
2013-03-12 05:48:00,45.1,26.6,30.01,North,0,0.0,0.0,48,0.00,,,0.00,Wunderground v.1.15,2013-03-12 10:48:00,
2013-03-12 05:50:00,44.9,25.9,30.01,North,0,0.0,0.0,47,0.00,,,0.00,Wunderground v.1.15,2013-03-12 10:50:00,
2013-03-12 05:53:00,44.8,26.3,30.01,North,0,0.0,0.0,48,0.00,,,0.00,Wunderground v.1.15,2013-03-12 10:53:00,
2013-03-12 05:54:00,44.6,26.1,30.01,North,0,0.0,0.0,48,0.00,,,0.00,Wunderground v.1.15,2013-03-12 10:54:00,
2013-03-12 05:57:00,44.6,27.1,30.01,North,0,0.0,0.0,50,0.00,,,0.00,Wunderground v.1.15,2013-03-12 10:57:00,
2013-03-12 05:58:00,44.5,26.5,30.01,North,0,0.0,0.0,49,0.00,,,0.00,Wunderground v.1.15,2013-03-12 10:58:00,
2013-03-12 06:03:00,44.3,26.3,30.02,North,0,0.0,0.0,49,0.00,,,0.00,Wunderground v.1.15,2013-03-12 11:03:00,
2013-03-12 06:04:00,44.3,26.3,30.02,North,0,0.0,0.0,49,0.00,,,0.00,Wunderground v.1.15,2013-03-12 11:04:00,
2013-03-12 06:05:00,44.3,26.3,30.02,North,0,0.0,0.0,49,0.00,,,0.00,Wunderground v.1.15,2013-03-12 11:05:00,
2013-03-12 06:08:00,44.3,25.8,30.02,North,0,0.0,0.0,48,0.00,,,0.00,Wunderground v.1.15,2013-03-12 11:08:00,
2013-03-12 06:10:00,44.3,25.3,30.02,North,0,0.0,0.0,47,0.00,,,0.00,Wunderground v.1.15,2013-03-12 11:10:00,
2013-03-12 06:11:00,44.5,25.5,30.02,North,0,0.0,0.0,47,0.00,,,0.00,Wunderground v.1.15,2013-03-12 11:11:00,
2013-03-12 06:12:00,44.5,26.0,30.02,North,0,0.0,0.0,48,0.00,,,0.00,Wunderground v.1.15,2013-03-12 11:12:00,
2013-03-12 06:16:00,44.5,27.0,30.02,North,0,0.0,0.0,50,0.00,,,0.00,Wunderground v.1.15,2013-03-12 11:16:00,
2013-03-12 06:18:00,44.3,26.3,30.02,North,0,0.0,0.0,49,0.00,,,0.00,Wunderground v.1.15,2013-03-12 11:18:00,
2013-03-12 06:21:00,44.3,26.8,30.02,North,0,0.0,0.0,50,0.00,,,0.00,Wunderground v.1.15,2013-03-12 11:21:00,
2013-03-12 06:24:00,44.2,27.7,30.02,North,0,0.0,0.0,52,0.00,,,0.00,Wunderground v.1.15,2013-03-12 11:24:00,
2013-03-12 06:26:00,44.2,26.2,30.02,North,0,0.0,0.0,49,0.00,,,0.00,Wunderground v.1.15,2013-03-12 11:26:00,
2013-03-12 06:30:00,44.1,26.1,30.02,North,0,0.0,0.0,49,0.00,,,0.00,Wunderground v.1.15,2013-03-12 11:30:00,
2013-03-12 06:31:00,44.1,26.1,30.02,North,0,0.0,0.0,49,0.00,,,0.00,Wunderground v.1.15,2013-03-12 11:31:00,
2013-03-12 06:32:00,44.1,25.6,30.02,North,0,0.0,0.0,48,0.00,,,0.00,Wunderground v.1.15,2013-03-12 11:32:00,
2013-03-12 06:38:00,43.9,26.0,30.02,North,0,0.0,0.0,49,0.00,,,0.00,Wunderground v.1.15,2013-03-12 11:38:00,
2013-03-12 06:40:00,43.8,25.9,30.02,North,0,0.0,0.0,49,0.00,,,0.00,Wunderground v.1.15,2013-03-12 11:40:00,
2013-03-12 06:41:00,43.8,25.9,30.02,North,0,0.0,0.0,49,0.00,,,0.00,Wunderground v.1.15,2013-03-12 11:41:00,
2013-03-12 06:46:00,43.8,25.9,30.03,North,0,0.0,0.0,49,0.00,,,0.00,Wunderground v.1.15,2013-03-12 11:46:00,
2013-03-12 06:47:00,43.8,25.9,30.03,North,0,0.0,0.0,49,0.00,,,0.00,Wunderground v.1.15,2013-03-12 11:47:00,
2013-03-12 06:48:00,43.8,25.9,30.03,North,0,0.0,0.0,49,0.00,,,0.00,Wunderground v.1.15,2013-03-12 11:48:00,
2013-03-12 06:49:00,43.8,25.9,30.03,North,0,0.0,0.0,49,0.00,,,0.00,Wunderground v.1.15,2013-03-12 11:49:00,
2013-03-12 06:54:00,43.8,26.3,30.03,North,0,0.0,0.0,50,0.00,,,0.00,Wunderground v.1.15,2013-03-12 11:54:00,
2013-03-12 06:56:00,43.8,26.3,30.03,North,0,0.0,0.0,50,0.00,,,0.00,Wunderground v.1.15,2013-03-12 11:56:00,
2013-03-12 06:57:00,43.8,26.3,30.03,North,0,0.0,0.0,50,0.00,,,0.00,Wunderground v.1.15,2013-03-12 11:57:00,
2013-03-12 07:00:00,43.8,25.9,30.03,North,0,0.0,0.0,49,0.00,,,0.00,Wunderground v.1.15,2013-03-12 12:00:00,
2013-03-12 07:02:00,43.8,26.3,30.03,North,0,0.0,0.0,50,0.00,,,0.00,Wunderground v.1.15,2013-03-12 12:02:00,
2013-03-12 07:03:00,43.8,26.3,30.03,North,0,0.0,0.0,50,0.00,,,0.00,Wunderground v.1.15,2013-03-12 12:03:00,
2013-03-12 07:07:00,43.6,26.2,30.03,North,0,0.0,0.0,50,0.00,,,0.00,Wunderground v.1.15,2013-03-12 12:07:00,
2013-03-12 07:10:00,43.6,25.7,30.03,North,0,0.0,0.0,49,0.00,,,0.00,Wunderground v.1.15,2013-03-12 12:10:00,
2013-03-12 07:12:00,43.6,26.2,30.03,North,0,0.0,0.0,50,0.00,,,0.00,Wunderground v.1.15,2013-03-12 12:12:00,
2013-03-12 07:13:00,43.6,26.6,30.03,North,0,0.0,0.0,51,0.00,,,0.00,Wunderground v.1.15,2013-03-12 12:13:00,
2013-03-12 07:16:00,43.6,26.6,30.04,North,0,0.0,0.0,51,0.00,,,0.00,Wunderground v.1.15,2013-03-12 12:16:00,
2013-03-12 07:18:00,43.6,26.2,30.04,North,0,0.0,0.0,50,0.00,,,0.00,Wunderground v.1.15,2013-03-12 12:18:00,
2013-03-12 07:20:00,43.6,25.7,30.04,North,0,0.0,0.0,49,0.00,,,0.00,Wunderground v.1.15,2013-03-12 12:20:00,
2013-03-12 07:21:00,43.8,25.9,30.04,North,0,0.0,0.0,49,0.00,,,0.00,Wunderground v.1.15,2013-03-12 12:21:00,
2013-03-12 07:23:00,43.8,25.9,30.04,North,0,0.0,0.0,49,0.00,,,0.00,Wunderground v.1.15,2013-03-12 12:23:00,
2013-03-12 07:24:00,43.8,25.9,30.04,North,0,0.0,0.0,49,0.00,,,0.00,Wunderground v.1.15,2013-03-12 12:24:00,
2013-03-12 07:25:00,43.8,25.4,30.04,North,0,0.0,0.0,48,0.00,,,0.00,Wunderground v.1.15,2013-03-12 12:25:00,
2013-03-12 07:28:00,43.9,26.4,30.04,North,0,0.0,0.0,50,0.00,,,0.00,Wunderground v.1.15,2013-03-12 12:28:00,
2013-03-12 07:30:00,43.9,26.0,30.04,North,0,0.0,0.0,49,0.00,,,0.00,Wunderground v.1.15,2013-03-12 12:30:00,
2013-03-12 07:31:00,43.9,26.4,30.04,North,0,0.0,0.0,50,0.00,,,0.00,Wunderground v.1.15,2013-03-12 12:31:00,
2013-03-12 07:35:00,43.9,26.4,30.04,North,0,0.0,0.0,50,0.00,,,0.00,Wunderground v.1.15,2013-03-12 12:35:00,
2013-03-12 07:37:00,43.9,26.4,30.04,North,0,0.0,0.0,50,0.00,,,0.00,Wunderground v.1.15,2013-03-12 12:37:00,
2013-03-12 07:38:00,43.9,25.5,30.04,North,0,0.0,0.0,48,0.00,,,0.00,Wunderground v.1.15,2013-03-12 12:38:00,
2013-03-12 07:42:00,44.1,25.6,30.04,North,0,0.0,0.0,48,0.00,,,0.00,Wunderground v.1.15,2013-03-12 12:42:00,
2013-03-12 07:45:00,44.1,25.6,30.04,North,0,0.0,0.0,48,0.00,,,0.00,Wunderground v.1.15,2013-03-12 12:45:00,
2013-03-12 07:46:00,44.1,25.6,30.05,North,0,0.0,0.0,48,0.00,,,0.00,Wunderground v.1.15,2013-03-12 12:46:00,
2013-03-12 07:47:00,44.1,25.6,30.05,North,0,0.0,0.0,48,0.00,,,0.00,Wunderground v.1.15,2013-03-12 12:47:00,
2013-03-12 07:52:00,43.9,26.0,30.05,North,0,0.0,0.0,49,0.00,,,0.00,Wunderground v.1.15,2013-03-12 12:52:00,
2013-03-12 07:53:00,43.9,26.4,30.05,North,0,0.0,0.0,50,0.00,,,0.00,Wunderground v.1.15,2013-03-12 12:53:00,
2013-03-12 07:55:00,43.9,26.0,30.05,North,0,0.0,0.0,49,0.00,,,0.00,Wunderground v.1.15,2013-03-12 12:55:00,
2013-03-12 08:00:00,43.9,25.5,30.05,North,0,0.0,0.0,48,0.00,,,0.00,Wunderground v.1.15,2013-03-12 13:00:00,
2013-03-12 08:02:00,44.1,25.6,30.05,North,0,0.0,0.0,48,0.00,,,0.00,Wunderground v.1.15,2013-03-12 13:02:00,
2013-03-12 08:03:00,44.1,25.6,30.05,North,0,0.0,0.0,48,0.00,,,0.00,Wunderground v.1.15,2013-03-12 13:03:00,
2013-03-12 08:05:00,44.1,25.6,30.05,North,0,0.0,0.0,48,0.00,,,0.00,Wunderground v.1.15,2013-03-12 13:05:00,
2013-03-12 08:07:00,44.1,25.1,30.05,North,0,0.0,0.0,47,0.00,,,0.00,Wunderground v.1.15,2013-03-12 13:07:00,
2013-03-12 08:10:00,44.2,25.7,30.05,North,0,0.0,0.0,48,0.00,,,0.00,Wunderground v.1.15,2013-03-12 13:10:00,
2013-03-12 08:12:00,44.3,25.3,30.05,North,0,0.0,0.0,47,0.00,,,0.00,Wunderground v.1.15,2013-03-12 13:12:00,
2013-03-12 08:13:00,44.3,25.3,30.05,North,0,0.0,0.0,47,0.00,,,0.00,Wunderground v.1.15,2013-03-12 13:13:00,
2013-03-12 08:14:00,44.5,25.5,30.05,North,0,0.0,0.0,47,0.00,,,0.00,Wunderground v.1.15,2013-03-12 13:14:00,
2013-03-12 08:19:00,44.9,25.3,30.06,North,0,0.0,0.0,46,0.00,,,0.00,Wunderground v.1.15,2013-03-12 13:19:00,
2013-03-12 08:20:00,45.2,25.6,30.06,North,0,0.0,0.0,46,0.00,,,0.00,Wunderground v.1.15,2013-03-12 13:20:00,
2013-03-12 08:21:00,45.2,25.6,30.06,North,0,0.0,0.0,46,0.00,,,0.00,Wunderground v.1.15,2013-03-12 13:21:00,
2013-03-12 08:27:00,46.0,26.4,30.06,North,0,0.0,0.0,46,0.00,,,0.00,Wunderground v.1.15,2013-03-12 13:27:00,
2013-03-12 08:28:00,46.1,26.4,30.06,North,0,0.0,0.0,46,0.00,,,0.00,Wunderground v.1.15,2013-03-12 13:28:00,
2013-03-12 08:32:00,46.8,26.6,30.06,North,0,0.0,0.0,45,0.00,,,0.00,Wunderground v.1.15,2013-03-12 13:32:00,
2013-03-12 08:33:00,47.0,26.2,30.06,North,0,0.0,0.0,44,0.00,,,0.00,Wunderground v.1.15,2013-03-12 13:33:00,
2013-03-12 08:34:00,47.1,26.3,30.06,North,0,0.0,0.0,44,0.00,,,0.00,Wunderground v.1.15,2013-03-12 13:34:00,
2013-03-12 08:37:00,47.6,26.2,30.06,North,0,0.0,0.0,43,0.00,,,0.00,Wunderground v.1.15,2013-03-12 13:37:00,
2013-03-12 08:42:00,48.5,27.6,30.06,North,0,0.0,0.0,44,0.00,,,0.00,Wunderground v.1.15,2013-03-12 13:42:00,
2013-03-12 08:43:00,48.6,27.6,30.06,North,0,0.0,0.0,44,0.00,,,0.00,Wunderground v.1.15,2013-03-12 13:43:00,
2013-03-12 08:46:00,49.2,28.2,30.06,North,0,0.0,0.0,44,0.00,,,0.00,Wunderground v.1.15,2013-03-12 13:46:00,
2013-03-12 08:47:00,49.6,28.0,30.06,North,0,0.0,0.0,43,0.00,,,0.00,Wunderground v.1.15,2013-03-12 13:47:00,
2013-03-12 08:48:00,49.8,27.6,30.06,North,0,0.0,0.0,42,0.00,,,0.00,Wunderground v.1.15,2013-03-12 13:48:00,
2013-03-12 08:50:00,50.4,28.1,30.06,North,0,0.0,0.0,42,0.00,,,0.00,Wunderground v.1.15,2013-03-12 13:50:00,
2013-03-12 08:51:00,50.4,27.6,30.06,North,0,0.0,0.0,41,0.00,,,0.00,Wunderground v.1.15,2013-03-12 13:51:00,
2013-03-12 08:53:00,51.0,28.7,30.06,North,0,0.0,0.0,42,0.00,,,0.00,Wunderground v.1.15,2013-03-12 13:53:00,
2013-03-12 08:56:00,51.9,28.3,30.06,North,0,0.0,0.0,40,0.00,,,0.00,Wunderground v.1.15,2013-03-12 13:56:00,
2013-03-12 08:59:00,52.6,28.9,30.06,North,0,0.0,0.0,40,0.00,,,0.00,Wunderground v.1.15,2013-03-12 13:59:00,
2013-03-12 09:00:00,52.8,28.5,30.06,North,0,0.0,0.0,39,0.00,,,0.00,Wunderground v.1.15,2013-03-12 14:00:00,
2013-03-12 09:02:00,52.8,28.5,30.07,North,0,0.0,1.0,39,0.00,,,0.00,Wunderground v.1.15,2013-03-12 14:02:00,
2013-03-12 09:03:00,52.9,28.6,30.07,North,0,0.0,1.0,39,0.00,,,0.00,Wunderground v.1.15,2013-03-12 14:03:00,
2013-03-12 09:06:00,53.2,28.9,30.07,North,0,0.0,1.0,39,0.00,,,0.00,Wunderground v.1.15,2013-03-12 14:06:00,
2013-03-12 09:09:00,53.3,28.9,30.07,North,0,0.0,1.0,39,0.00,,,0.00,Wunderground v.1.15,2013-03-12 14:09:00,
2013-03-12 09:14:00,53.3,30.2,30.07,West,264,0.0,3.0,41,0.00,,,0.00,Wunderground v.1.15,2013-03-12 14:14:00,
2013-03-12 09:15:00,53.3,30.2,30.07,West,264,0.0,3.0,41,0.00,,,0.00,Wunderground v.1.15,2013-03-12 14:15:00,
2013-03-12 09:20:00,53.6,31.0,30.08,West,264,1.0,1.0,42,0.00,,,0.00,Wunderground v.1.15,2013-03-12 14:20:00,
2013-03-12 09:22:00,53.8,31.2,30.08,West,264,1.0,3.0,42,0.00,,,0.00,Wunderground v.1.15,2013-03-12 14:22:00,
2013-03-12 09:26:00,53.9,31.3,30.08,SSW,195,1.0,3.0,42,0.00,,,0.00,Wunderground v.1.15,2013-03-12 14:26:00,
2013-03-12 09:27:00,53.9,31.9,30.08,SSW,195,1.0,3.0,43,0.00,,,0.00,Wunderground v.1.15,2013-03-12 14:27:00,
2013-03-12 09:29:00,53.8,31.2,30.08,SSW,195,1.0,3.0,42,0.00,,,0.00,Wunderground v.1.15,2013-03-12 14:29:00,
2013-03-12 09:31:00,53.8,31.8,30.08,SSW,195,2.0,3.0,43,0.00,,,0.00,Wunderground v.1.15,2013-03-12 14:31:00,
2013-03-12 09:37:00,53.9,32.5,30.08,SSW,193,3.0,6.0,44,0.00,,,0.00,Wunderground v.1.15,2013-03-12 14:37:00,
2013-03-12 09:38:00,53.9,32.5,30.08,SW,223,3.0,6.0,44,0.00,,,0.00,Wunderground v.1.15,2013-03-12 14:38:00,
2013-03-12 09:39:00,53.9,32.5,30.08,SW,223,3.0,6.0,44,0.00,,,0.00,Wunderground v.1.15,2013-03-12 14:39:00,
2013-03-12 09:43:00,54.4,33.5,30.08,SSW,209,3.0,6.0,45,0.00,,,0.00,Wunderground v.1.15,2013-03-12 14:43:00,
2013-03-12 09:44:00,54.4,32.9,30.08,SSW,205,3.0,6.0,44,0.00,,,0.00,Wunderground v.1.15,2013-03-12 14:44:00,
2013-03-12 09:45:00,54.4,32.9,30.08,SSW,205,3.0,6.0,44,0.00,,,0.00,Wunderground v.1.15,2013-03-12 14:45:00,
2013-03-12 09:48:00,54.5,33.0,30.08,SSW,205,3.0,6.0,44,0.00,,,0.00,Wunderground v.1.15,2013-03-12 14:48:00,
2013-03-12 09:50:00,54.8,33.8,30.08,SSW,205,3.0,8.0,45,0.00,,,0.00,Wunderground v.1.15,2013-03-12 14:50:00,
2013-03-12 09:53:00,55.0,33.5,30.08,SW,215,4.0,8.0,44,0.00,,,0.00,Wunderground v.1.15,2013-03-12 14:53:00,
2013-03-12 09:54:00,55.0,33.5,30.08,SW,230,4.0,8.0,44,0.00,,,0.00,Wunderground v.1.15,2013-03-12 14:54:00,
2013-03-12 09:59:00,54.8,32.7,30.08,WSW,237,5.0,10.0,43,0.00,,,0.00,Wunderground v.1.15,2013-03-12 14:59:00,
2013-03-12 10:00:00,54.8,32.7,30.09,SSW,208,6.0,6.0,43,0.00,,,0.00,Wunderground v.1.15,2013-03-12 15:00:00,
2013-03-12 10:04:00,55.3,33.7,30.09,SSW,199,5.0,6.0,44,0.00,,,0.00,Wunderground v.1.15,2013-03-12 15:04:00,
2013-03-12 10:07:00,55.7,33.5,30.09,SW,226,4.0,6.0,43,0.00,,,0.00,Wunderground v.1.15,2013-03-12 15:07:00,
2013-03-12 10:08:00,55.9,33.1,30.09,SSW,199,4.0,6.0,42,0.00,,,0.00,Wunderground v.1.15,2013-03-12 15:08:00,
2013-03-12 10:10:00,56.0,32.6,30.09,SSW,203,4.0,4.0,41,0.00,,,0.00,Wunderground v.1.15,2013-03-12 15:10:00,
2013-03-12 10:11:00,56.2,32.8,30.09,SW,215,4.0,5.0,41,0.00,,,0.00,Wunderground v.1.15,2013-03-12 15:11:00,
2013-03-12 10:12:00,56.3,32.9,30.09,WSW,240,4.0,10.0,41,0.00,,,0.00,Wunderground v.1.15,2013-03-12 15:12:00,
2013-03-12 10:16:00,56.6,33.2,30.09,SSW,206,5.0,10.0,41,0.00,,,0.00,Wunderground v.1.15,2013-03-12 15:16:00,
2013-03-12 10:17:00,56.7,33.2,30.09,SSW,202,5.0,10.0,41,0.00,,,0.00,Wunderground v.1.15,2013-03-12 15:17:00,
2013-03-12 10:20:00,56.9,33.4,30.09,SW,234,5.0,11.0,41,0.00,,,0.00,Wunderground v.1.15,2013-03-12 15:20:00,
2013-03-12 10:23:00,57.2,33.7,30.09,WSW,247,5.0,11.0,41,0.00,,,0.00,Wunderground v.1.15,2013-03-12 15:23:00,
2013-03-12 10:25:00,57.0,33.5,30.09,SW,232,5.0,11.0,41,0.00,,,0.00,Wunderground v.1.15,2013-03-12 15:25:00,
2013-03-12 10:28:00,57.3,33.8,30.09,South,181,5.0,11.0,41,0.00,,,0.00,Wunderground v.1.15,2013-03-12 15:28:00,
2013-03-12 10:30:00,57.5,33.3,30.09,SSW,206,5.0,11.0,40,0.00,,,0.00,Wunderground v.1.15,2013-03-12 15:30:00,
2013-03-12 10:32:00,57.6,34.1,30.10,SW,236,5.0,11.0,41,0.00,,,0.00,Wunderground v.1.15,2013-03-12 15:32:00,
2013-03-12 10:33:00,57.6,33.4,30.10,WSW,247,5.0,11.0,40,0.00,,,0.00,Wunderground v.1.15,2013-03-12 15:33:00,
2013-03-12 10:34:00,57.8,33.6,30.10,West,261,5.0,11.0,40,0.00,,,0.00,Wunderground v.1.15,2013-03-12 15:34:00,
2013-03-12 10:37:00,58.1,33.9,30.10,SW,236,5.0,11.0,40,0.00,,,0.00,Wunderground v.1.15,2013-03-12 15:37:00,
2013-03-12 10:40:00,58.6,33.7,30.10,SSW,192,5.0,10.0,39,0.00,,,0.00,Wunderground v.1.15,2013-03-12 15:40:00,
2013-03-12 10:41:00,58.7,33.1,30.10,South,184,5.0,10.0,38,0.00,,,0.00,Wunderground v.1.15,2013-03-12 15:41:00,
2013-03-12 10:42:00,58.7,33.8,30.10,South,169,5.0,10.0,39,0.00,,,0.00,Wunderground v.1.15,2013-03-12 15:42:00,
2013-03-12 10:45:00,59.2,32.9,30.10,SW,223,5.0,10.0,37,0.00,,,0.00,Wunderground v.1.15,2013-03-12 15:45:00,
2013-03-12 10:46:00,59.2,33.6,30.10,West,271,6.0,10.0,38,0.00,,,0.00,Wunderground v.1.15,2013-03-12 15:46:00,
2013-03-12 10:47:00,59.3,33.7,30.10,SW,230,6.0,10.0,38,0.00,,,0.00,Wunderground v.1.15,2013-03-12 15:47:00,
2013-03-12 10:52:00,59.8,34.1,30.10,SSW,198,6.0,14.0,38,0.00,,,0.00,Wunderground v.1.15,2013-03-12 15:52:00,
2013-03-12 10:53:00,59.9,34.2,30.10,SW,230,6.0,14.0,38,0.00,,,0.00,Wunderground v.1.15,2013-03-12 15:53:00,
2013-03-12 10:54:00,59.8,34.1,30.10,SSW,210,6.0,14.0,38,0.00,,,0.00,Wunderground v.1.15,2013-03-12 15:54:00,
2013-03-12 10:55:00,59.8,34.1,30.10,SSW,196,7.0,14.0,38,0.00,,,0.00,Wunderground v.1.15,2013-03-12 15:55:00,
2013-03-12 10:58:00,59.8,33.5,30.10,SSW,209,7.0,14.0,37,0.00,,,0.00,Wunderground v.1.15,2013-03-12 15:58:00,
2013-03-12 11:00:00,59.8,32.8,30.10,SSW,195,8.0,13.0,36,0.00,,,0.00,Wunderground v.1.15,2013-03-12 16:00:00,
2013-03-12 11:04:00,60.2,33.1,30.10,South,189,7.0,13.0,36,0.00,,,0.00,Wunderground v.1.15,2013-03-12 16:04:00,
2013-03-12 11:05:00,60.4,33.3,30.10,SSW,205,7.0,13.0,36,0.00,,,0.00,Wunderground v.1.15,2013-03-12 16:05:00,
2013-03-12 11:07:00,60.7,32.9,30.10,SW,215,6.0,13.0,35,0.00,,,0.00,Wunderground v.1.15,2013-03-12 16:07:00,
2013-03-12 11:10:00,61.0,32.4,30.10,SW,217,6.0,6.0,34,0.00,,,0.00,Wunderground v.1.15,2013-03-12 16:10:00,
2013-03-12 11:12:00,61.2,32.6,30.10,SSE,150,7.0,14.0,34,0.00,,,0.00,Wunderground v.1.15,2013-03-12 16:12:00,
2013-03-12 11:13:00,61.3,31.9,30.10,South,176,7.0,14.0,33,0.00,,,0.00,Wunderground v.1.15,2013-03-12 16:13:00,
2013-03-12 11:17:00,61.6,31.4,30.11,South,171,8.0,14.0,32,0.00,,,0.00,Wunderground v.1.15,2013-03-12 16:17:00,
2013-03-12 11:19:00,61.8,31.6,30.11,SW,216,8.0,14.0,32,0.00,,,0.00,Wunderground v.1.15,2013-03-12 16:19:00,
2013-03-12 11:22:00,62.3,31.3,30.11,SSW,202,8.0,14.0,31,0.00,,,0.00,Wunderground v.1.15,2013-03-12 16:22:00,
2013-03-12 11:24:00,62.4,31.3,30.11,SSE,147,8.0,16.0,31,0.00,,,0.00,Wunderground v.1.15,2013-03-12 16:24:00,
2013-03-12 11:26:00,62.7,31.6,30.11,South,181,8.0,16.0,31,0.00,,,0.00,Wunderground v.1.15,2013-03-12 16:26:00,
2013-03-12 11:27:00,62.9,31.8,30.11,South,186,7.0,16.0,31,0.00,,,0.00,Wunderground v.1.15,2013-03-12 16:27:00,
2013-03-12 11:31:00,63.2,32.0,30.10,South,191,7.0,16.0,31,0.00,,,0.00,Wunderground v.1.15,2013-03-12 16:31:00,
2013-03-12 11:32:00,63.4,31.4,30.10,SSE,157,7.0,16.0,30,0.00,,,0.00,Wunderground v.1.15,2013-03-12 16:32:00,
2013-03-12 11:34:00,63.5,32.3,30.10,SW,233,6.0,16.0,31,0.00,,,0.00,Wunderground v.1.15,2013-03-12 16:34:00,
2013-03-12 11:37:00,64.0,31.1,30.10,SSW,193,7.0,16.0,29,0.00,,,0.00,Wunderground v.1.15,2013-03-12 16:37:00,
2013-03-12 11:38:00,64.0,31.9,30.10,SSE,165,7.0,16.0,30,0.00,,,0.00,Wunderground v.1.15,2013-03-12 16:38:00,
2013-03-12 11:42:00,64.5,32.4,30.10,SSW,192,6.0,18.0,30,0.00,,,0.00,Wunderground v.1.15,2013-03-12 16:42:00,
2013-03-12 11:43:00,64.7,31.7,30.10,SSW,209,6.0,18.0,29,0.00,,,0.00,Wunderground v.1.15,2013-03-12 16:43:00,
2013-03-12 11:44:00,64.5,31.5,30.10,WSW,241,6.0,18.0,29,0.00,,,0.00,Wunderground v.1.15,2013-03-12 16:44:00,
2013-03-12 11:48:00,64.8,31.8,30.10,South,181,5.0,18.0,29,0.00,,,0.00,Wunderground v.1.15,2013-03-12 16:48:00,
2013-03-12 11:51:00,64.7,31.7,30.10,SSW,192,6.0,16.0,29,0.00,,,0.00,Wunderground v.1.15,2013-03-12 16:51:00,
2013-03-12 11:52:00,64.7,32.5,30.10,SSW,202,6.0,16.0,30,0.00,,,0.00,Wunderground v.1.15,2013-03-12 16:52:00,
2013-03-12 11:54:00,64.7,31.7,30.10,SSW,208,5.0,16.0,29,0.00,,,0.00,Wunderground v.1.15,2013-03-12 16:54:00,
2013-03-12 11:55:00,64.8,33.4,30.10,South,178,5.0,16.0,31,0.00,,,0.00,Wunderground v.1.15,2013-03-12 16:55:00,
2013-03-12 11:57:00,65.0,32.8,30.10,South,184,5.0,16.0,30,0.00,,,0.00,Wunderground v.1.15,2013-03-12 16:57:00,
2013-03-12 12:00:00,65.0,31.9,30.10,South,176,5.0,5.0,29,0.00,,,0.00,Wunderground v.1.15,2013-03-12 17:00:00,
2013-03-12 12:03:00,65.2,33.0,30.10,SSW,198,5.0,14.0,30,0.00,,,0.00,Wunderground v.1.15,2013-03-12 17:03:00,
2013-03-12 12:04:00,65.5,33.2,30.10,SSW,210,4.0,14.0,30,0.00,,,0.00,Wunderground v.1.15,2013-03-12 17:04:00,
2013-03-12 12:06:00,65.8,32.6,30.10,South,188,4.0,14.0,29,0.00,,,0.00,Wunderground v.1.15,2013-03-12 17:06:00,
2013-03-12 12:08:00,66.1,32.9,30.10,WSW,250,4.0,14.0,29,0.00,,,0.00,Wunderground v.1.15,2013-03-12 17:08:00,
2013-03-12 12:09:00,66.1,32.9,30.10,SW,219,5.0,14.0,29,0.00,,,0.00,Wunderground v.1.15,2013-03-12 17:09:00,
2013-03-12 12:11:00,66.0,31.9,30.10,SSW,198,5.0,12.0,28,0.00,,,0.00,Wunderground v.1.15,2013-03-12 17:11:00,
2013-03-12 12:12:00,66.0,32.8,30.10,South,191,5.0,12.0,29,0.00,,,0.00,Wunderground v.1.15,2013-03-12 17:12:00,
2013-03-12 12:14:00,66.1,32.9,30.10,SSW,210,6.0,13.0,29,0.00,,,0.00,Wunderground v.1.15,2013-03-12 17:14:00,
2013-03-12 12:17:00,66.1,31.1,30.09,South,174,7.0,13.0,27,0.00,,,0.00,Wunderground v.1.15,2013-03-12 17:17:00,
2013-03-12 12:18:00,66.1,31.1,30.09,South,176,7.0,13.0,27,0.00,,,0.00,Wunderground v.1.15,2013-03-12 17:18:00,
2013-03-12 12:21:00,66.1,32.0,30.09,SW,224,7.0,7.0,28,0.00,,,0.00,Wunderground v.1.15,2013-03-12 17:21:00,
2013-03-12 12:22:00,66.1,32.0,30.09,SE,140,7.0,11.0,28,0.00,,,0.00,Wunderground v.1.15,2013-03-12 17:22:00,
2013-03-12 12:26:00,66.4,32.3,30.09,SSW,193,7.0,14.0,28,0.00,,,0.00,Wunderground v.1.15,2013-03-12 17:26:00,
2013-03-12 12:27:00,66.3,32.2,30.09,SW,215,8.0,14.0,28,0.00,,,0.00,Wunderground v.1.15,2013-03-12 17:27:00,
2013-03-12 12:29:00,66.3,32.2,30.09,South,184,8.0,14.0,28,0.00,,,0.00,Wunderground v.1.15,2013-03-12 17:29:00,
2013-03-12 12:34:00,66.4,32.3,30.09,South,182,8.0,15.0,28,0.00,,,0.00,Wunderground v.1.15,2013-03-12 17:34:00,
2013-03-12 12:35:00,66.8,32.6,30.09,SSW,203,7.0,15.0,28,0.00,,,0.00,Wunderground v.1.15,2013-03-12 17:35:00,
2013-03-12 12:37:00,67.1,32.0,30.09,SW,215,7.0,15.0,27,0.00,,,0.00,Wunderground v.1.15,2013-03-12 17:37:00,
2013-03-12 12:39:00,66.9,31.8,30.09,SW,234,7.0,15.0,27,0.00,,,0.00,Wunderground v.1.15,2013-03-12 17:39:00,
2013-03-12 12:43:00,66.9,32.7,30.09,SSW,206,6.0,19.0,28,0.00,,,0.00,Wunderground v.1.15,2013-03-12 17:43:00,
2013-03-12 12:44:00,66.9,32.7,30.09,SW,236,7.0,19.0,28,0.00,,,0.00,Wunderground v.1.15,2013-03-12 17:44:00,
2013-03-12 12:45:00,67.1,32.9,30.09,South,171,7.0,19.0,28,0.00,,,0.00,Wunderground v.1.15,2013-03-12 17:45:00,
2013-03-12 12:49:00,67.9,32.7,30.08,South,184,6.0,19.0,27,0.00,,,0.00,Wunderground v.1.15,2013-03-12 17:49:00,
2013-03-12 12:50:00,68.1,31.9,30.08,SSW,195,5.0,19.0,26,0.00,,,0.00,Wunderground v.1.15,2013-03-12 17:50:00,
2013-03-12 12:55:00,67.9,32.7,30.08,South,171,6.0,16.0,27,0.00,,,0.00,Wunderground v.1.15,2013-03-12 17:55:00,
2013-03-12 12:56:00,67.8,32.6,30.08,SSW,195,6.0,16.0,27,0.00,,,0.00,Wunderground v.1.15,2013-03-12 17:56:00,
2013-03-12 12:57:00,67.8,33.5,30.08,SSW,208,6.0,16.0,28,0.00,,,0.00,Wunderground v.1.15,2013-03-12 17:57:00,
2013-03-12 13:00:00,68.3,33.9,30.08,SSW,195,7.0,7.0,28,0.00,,,0.00,Wunderground v.1.15,2013-03-12 18:00:00,
2013-03-12 13:02:00,68.4,32.1,30.08,South,186,6.0,13.0,26,0.00,,,0.00,Wunderground v.1.15,2013-03-12 18:02:00,
2013-03-12 13:04:00,68.4,32.1,30.08,SSE,155,7.0,13.0,26,0.00,,,0.00,Wunderground v.1.15,2013-03-12 18:04:00,
2013-03-12 13:07:00,68.4,32.1,30.08,SW,223,7.0,13.0,26,0.00,,,0.00,Wunderground v.1.15,2013-03-12 18:07:00,
2013-03-12 13:08:00,68.4,32.1,30.08,WSW,239,7.0,13.0,26,0.00,,,0.00,Wunderground v.1.15,2013-03-12 18:08:00,
2013-03-12 13:10:00,68.4,33.1,30.08,SSW,193,7.0,7.0,27,0.00,,,0.00,Wunderground v.1.15,2013-03-12 18:10:00,
2013-03-12 13:14:00,68.8,32.5,30.08,SW,229,6.0,17.0,26,0.00,,,0.00,Wunderground v.1.15,2013-03-12 18:14:00,
2013-03-12 13:15:00,68.9,32.6,30.08,SSE,165,5.0,17.0,26,0.00,,,0.00,Wunderground v.1.15,2013-03-12 18:15:00,
2013-03-12 13:17:00,69.3,32.9,30.07,South,181,5.0,17.0,26,0.00,,,0.00,Wunderground v.1.15,2013-03-12 18:17:00,
2013-03-12 13:18:00,69.4,33.0,30.07,WSW,246,5.0,17.0,26,0.00,,,0.00,Wunderground v.1.15,2013-03-12 18:18:00,
2013-03-12 13:22:00,70.1,32.6,30.07,SSW,213,5.0,14.0,25,0.00,,,0.00,Wunderground v.1.15,2013-03-12 18:22:00,
2013-03-12 13:25:00,70.3,31.8,30.07,SW,220,5.0,14.0,24,0.00,,,0.00,Wunderground v.1.15,2013-03-12 18:25:00,
2013-03-12 13:27:00,70.4,31.9,30.07,SSW,206,5.0,14.0,24,0.00,,,0.00,Wunderground v.1.15,2013-03-12 18:27:00,
2013-03-12 13:29:00,70.6,32.0,30.07,SW,215,5.0,14.0,24,0.00,,,0.00,Wunderground v.1.15,2013-03-12 18:29:00,
2013-03-12 13:30:00,70.6,32.0,30.07,SSW,210,6.0,13.0,24,0.00,,,0.00,Wunderground v.1.15,2013-03-12 18:30:00,
2013-03-12 13:32:00,70.6,32.0,30.07,South,182,6.0,13.0,24,0.00,,,0.00,Wunderground v.1.15,2013-03-12 18:32:00,
2013-03-12 13:34:00,70.9,32.3,30.07,SW,224,6.0,13.0,24,0.00,,,0.00,Wunderground v.1.15,2013-03-12 18:34:00,
2013-03-12 13:36:00,71.3,32.6,30.07,SSW,208,5.0,13.0,24,0.00,,,0.00,Wunderground v.1.15,2013-03-12 18:36:00,
2013-03-12 13:37:00,71.5,31.7,30.07,WSW,241,6.0,13.0,23,0.00,,,0.00,Wunderground v.1.15,2013-03-12 18:37:00,
2013-03-12 13:39:00,71.6,32.9,30.07,SW,220,5.0,13.0,24,0.00,,,0.00,Wunderground v.1.15,2013-03-12 18:39:00,
2013-03-12 13:41:00,72.0,32.1,30.07,SSW,206,4.0,4.0,23,0.00,,,0.00,Wunderground v.1.15,2013-03-12 18:41:00,
2013-03-12 13:43:00,72.0,32.1,30.07,South,178,5.0,13.0,23,0.00,,,0.00,Wunderground v.1.15,2013-03-12 18:43:00,
2013-03-12 13:46:00,71.5,31.7,30.06,SW,220,6.0,13.0,23,0.00,,,0.00,Wunderground v.1.15,2013-03-12 18:46:00,
2013-03-12 13:47:00,71.5,31.7,30.06,WSW,243,6.0,13.0,23,0.00,,,0.00,Wunderground v.1.15,2013-03-12 18:47:00,
2013-03-12 13:49:00,71.3,30.5,30.06,South,169,7.0,13.0,22,0.00,,,0.00,Wunderground v.1.15,2013-03-12 18:49:00,
2013-03-12 13:52:00,71.1,31.4,30.06,WSW,248,7.0,14.0,23,0.00,,,0.00,Wunderground v.1.15,2013-03-12 18:52:00,
2013-03-12 13:53:00,71.1,30.3,30.06,West,274,7.0,14.0,22,0.00,,,0.00,Wunderground v.1.15,2013-03-12 18:53:00,
2013-03-12 13:57:00,71.1,31.4,30.06,SW,236,7.0,14.0,23,0.00,,,0.00,Wunderground v.1.15,2013-03-12 18:57:00,
2013-03-12 13:58:00,71.3,31.6,30.06,WSW,251,6.0,14.0,23,0.00,,,0.00,Wunderground v.1.15,2013-03-12 18:58:00,
2013-03-12 14:01:00,71.6,32.9,30.05,South,179,5.0,5.0,24,0.00,,,0.00,Wunderground v.1.15,2013-03-12 19:01:00,
2013-03-12 14:02:00,72.0,32.1,30.05,SW,223,5.0,16.0,23,0.00,,,0.00,Wunderground v.1.15,2013-03-12 19:02:00,
2013-03-12 14:03:00,72.1,33.3,30.05,SSW,198,5.0,16.0,24,0.00,,,0.00,Wunderground v.1.15,2013-03-12 19:03:00,
2013-03-12 14:06:00,73.0,31.9,30.05,WSW,237,4.0,16.0,22,0.00,,,0.00,Wunderground v.1.15,2013-03-12 19:06:00,
2013-03-12 14:08:00,73.2,30.9,30.05,South,182,4.0,16.0,21,0.00,,,0.00,Wunderground v.1.15,2013-03-12 19:08:00,
2013-03-12 14:09:00,73.2,32.1,30.05,SSW,199,5.0,16.0,22,0.00,,,0.00,Wunderground v.1.15,2013-03-12 19:09:00,
2013-03-12 14:14:00,73.3,31.0,30.05,SE,143,6.0,14.0,21,0.00,,,0.00,Wunderground v.1.15,2013-03-12 19:14:00,
2013-03-12 14:15:00,73.3,31.0,30.05,SSW,192,6.0,14.0,21,0.00,,,0.00,Wunderground v.1.15,2013-03-12 19:15:00,
2013-03-12 14:19:00,73.0,31.9,30.04,SW,233,6.0,14.0,22,0.00,,,0.00,Wunderground v.1.15,2013-03-12 19:19:00,
2013-03-12 14:23:00,73.5,32.3,30.04,WSW,239,6.0,14.0,22,0.00,,,0.00,Wunderground v.1.15,2013-03-12 19:23:00,
2013-03-12 14:24:00,73.7,32.5,30.04,SW,234,6.0,14.0,22,0.00,,,0.00,Wunderground v.1.15,2013-03-12 19:24:00,
2013-03-12 14:25:00,73.7,31.3,30.04,SSW,192,6.0,14.0,21,0.00,,,0.00,Wunderground v.1.15,2013-03-12 19:25:00,
2013-03-12 14:29:00,74.0,31.6,30.04,South,179,5.0,14.0,21,0.00,,,0.00,Wunderground v.1.15,2013-03-12 19:29:00,
2013-03-12 14:30:00,74.0,30.4,30.04,SSW,205,6.0,14.0,20,0.00,,,0.00,Wunderground v.1.15,2013-03-12 19:30:00,
2013-03-12 14:31:00,74.0,31.6,30.03,SW,232,6.0,6.0,21,0.00,,,0.00,Wunderground v.1.15,2013-03-12 19:31:00,
2013-03-12 14:35:00,74.0,31.6,30.03,SSW,206,6.0,14.0,21,0.00,,,0.00,Wunderground v.1.15,2013-03-12 19:35:00,
2013-03-12 14:36:00,73.9,31.5,30.03,SW,234,6.0,14.0,21,0.00,,,0.00,Wunderground v.1.15,2013-03-12 19:36:00,
2013-03-12 14:40:00,73.9,31.5,30.03,SE,124,6.0,14.0,21,0.00,,,0.00,Wunderground v.1.15,2013-03-12 19:40:00,
2013-03-12 14:42:00,73.9,30.3,30.03,SW,229,7.0,14.0,20,0.00,,,0.00,Wunderground v.1.15,2013-03-12 19:42:00,
2013-03-12 14:44:00,73.7,30.1,30.03,SW,233,7.0,14.0,20,0.00,,,0.00,Wunderground v.1.15,2013-03-12 19:44:00,
2013-03-12 14:45:00,73.7,31.3,30.03,SW,223,7.0,14.0,21,0.00,,,0.00,Wunderground v.1.15,2013-03-12 19:45:00,
2013-03-12 14:47:00,73.9,30.3,30.02,SSW,202,7.0,14.0,20,0.00,,,0.00,Wunderground v.1.15,2013-03-12 19:47:00,
2013-03-12 14:51:00,74.0,30.4,30.02,SW,219,7.0,14.0,20,0.00,,,0.00,Wunderground v.1.15,2013-03-12 19:51:00,
2013-03-12 14:52:00,74.0,30.4,30.02,South,185,7.0,14.0,20,0.00,,,0.00,Wunderground v.1.15,2013-03-12 19:52:00,
2013-03-12 14:57:00,74.9,31.1,30.02,SW,220,5.0,14.0,20,0.00,,,0.00,Wunderground v.1.15,2013-03-12 19:57:00,
2013-03-12 14:59:00,75.1,31.3,30.02,South,189,5.0,14.0,20,0.00,,,0.00,Wunderground v.1.15,2013-03-12 19:59:00,
2013-03-12 15:00:00,75.3,31.4,30.02,SSE,150,5.0,5.0,20,0.00,,,0.00,Wunderground v.1.15,2013-03-12 20:00:00,
2013-03-12 15:02:00,75.3,31.4,30.01,WSW,240,6.0,12.0,20,0.00,,,0.00,Wunderground v.1.15,2013-03-12 20:02:00,
2013-03-12 15:04:00,75.1,30.0,30.01,SSW,196,6.0,16.0,19,0.00,,,0.00,Wunderground v.1.15,2013-03-12 20:04:00,
2013-03-12 15:07:00,74.9,31.1,30.01,SSW,208,7.0,16.0,20,0.00,,,0.00,Wunderground v.1.15,2013-03-12 20:07:00,
2013-03-12 15:08:00,74.9,31.1,30.01,SSW,209,7.0,16.0,20,0.00,,,0.00,Wunderground v.1.15,2013-03-12 20:08:00,
2013-03-12 15:11:00,74.9,31.1,30.01,South,184,7.0,19.0,20,0.00,,,0.00,Wunderground v.1.15,2013-03-12 20:11:00,
2013-03-12 15:14:00,74.9,31.1,30.01,South,175,7.0,19.0,20,0.00,,,0.00,Wunderground v.1.15,2013-03-12 20:14:00,
2013-03-12 15:15:00,74.9,31.1,30.01,SSW,203,8.0,19.0,20,0.00,,,0.00,Wunderground v.1.15,2013-03-12 20:15:00,
2013-03-12 15:18:00,74.9,29.8,30.01,SSW,208,8.0,19.0,19,0.00,,,0.00,Wunderground v.1.15,2013-03-12 20:18:00,
2013-03-12 15:20:00,74.9,31.1,30.01,WSW,241,8.0,8.0,20,0.00,,,0.00,Wunderground v.1.15,2013-03-12 20:20:00,
2013-03-12 15:21:00,75.1,31.3,30.01,SW,232,7.0,10.0,20,0.00,,,0.00,Wunderground v.1.15,2013-03-12 20:21:00,
2013-03-12 15:22:00,75.3,30.2,30.01,WSW,239,8.0,13.0,19,0.00,,,0.00,Wunderground v.1.15,2013-03-12 20:22:00,
2013-03-12 15:26:00,75.6,30.4,30.01,SW,222,7.0,16.0,19,0.00,,,0.00,Wunderground v.1.15,2013-03-12 20:26:00,
2013-03-12 15:27:00,75.6,30.4,30.01,SSW,212,7.0,16.0,19,0.00,,,0.00,Wunderground v.1.15,2013-03-12 20:27:00,
2013-03-12 15:28:00,75.8,30.6,30.01,WSW,251,6.0,16.0,19,0.00,,,0.00,Wunderground v.1.15,2013-03-12 20:28:00,
2013-03-12 15:29:00,75.8,30.6,30.01,SW,236,7.0,16.0,19,0.00,,,0.00,Wunderground v.1.15,2013-03-12 20:29:00,
2013-03-12 15:32:00,75.4,30.2,30.01,WSW,250,8.0,18.0,19,0.00,,,0.00,Wunderground v.1.15,2013-03-12 20:32:00,
2013-03-12 15:33:00,75.4,30.2,30.01,SW,227,8.0,18.0,19,0.00,,,0.00,Wunderground v.1.15,2013-03-12 20:33:00,
2013-03-12 15:34:00,75.4,30.2,30.01,South,172,7.0,18.0,19,0.00,,,0.00,Wunderground v.1.15,2013-03-12 20:34:00,
2013-03-12 15:39:00,75.4,28.9,30.01,SSW,209,7.0,18.0,18,0.00,,,0.00,Wunderground v.1.15,2013-03-12 20:39:00,
2013-03-12 15:40:00,75.6,29.1,30.01,SSW,203,7.0,18.0,18,0.00,,,0.00,Wunderground v.1.15,2013-03-12 20:40:00,
2013-03-12 15:42:00,75.8,29.2,30.01,South,184,7.0,18.0,18,0.00,,,0.00,Wunderground v.1.15,2013-03-12 20:42:00,
2013-03-12 15:44:00,75.8,29.2,30.01,WSW,248,7.0,18.0,18,0.00,,,0.00,Wunderground v.1.15,2013-03-12 20:44:00,
2013-03-12 15:46:00,76.3,29.7,30.00,South,185,6.0,18.0,18,0.00,,,0.00,Wunderground v.1.15,2013-03-12 20:46:00,
2013-03-12 15:47:00,76.3,29.7,30.00,SSW,203,6.0,18.0,18,0.00,,,0.00,Wunderground v.1.15,2013-03-12 20:47:00,
2013-03-12 15:52:00,76.5,28.4,30.00,SSW,199,6.0,12.0,17,0.00,,,0.00,Wunderground v.1.15,2013-03-12 20:52:00,
2013-03-12 15:53:00,76.5,28.4,30.00,SSW,206,6.0,12.0,17,0.00,,,0.00,Wunderground v.1.15,2013-03-12 20:53:00,
2013-03-12 15:54:00,76.5,28.4,30.00,South,185,7.0,12.0,17,0.00,,,0.00,Wunderground v.1.15,2013-03-12 20:54:00,
2013-03-12 15:57:00,76.5,28.4,30.00,South,189,7.0,12.0,17,0.00,,,0.00,Wunderground v.1.15,2013-03-12 20:57:00,
2013-03-12 15:58:00,76.5,28.4,30.00,South,182,7.0,12.0,17,0.00,,,0.00,Wunderground v.1.15,2013-03-12 20:58:00,
2013-03-12 16:02:00,76.3,28.3,30.00,WSW,250,7.0,17.0,17,0.00,,,0.00,Wunderground v.1.15,2013-03-12 21:02:00,
2013-03-12 16:03:00,76.3,29.7,30.00,West,280,7.0,17.0,18,0.00,,,0.00,Wunderground v.1.15,2013-03-12 21:03:00,
2013-03-12 16:04:00,76.3,29.7,30.00,WSW,237,7.0,17.0,18,0.00,,,0.00,Wunderground v.1.15,2013-03-12 21:04:00,
2013-03-12 16:07:00,76.1,29.5,30.00,SW,224,7.0,17.0,18,0.00,,,0.00,Wunderground v.1.15,2013-03-12 21:07:00,
2013-03-12 16:09:00,76.3,28.3,30.00,WSW,254,7.0,17.0,17,0.00,,,0.00,Wunderground v.1.15,2013-03-12 21:09:00,
2013-03-12 16:12:00,76.3,28.3,30.00,SW,224,6.0,15.0,17,0.00,,,0.00,Wunderground v.1.15,2013-03-12 21:12:00,
2013-03-12 16:13:00,76.5,29.8,30.00,South,169,6.0,15.0,18,0.00,,,0.00,Wunderground v.1.15,2013-03-12 21:13:00,
2013-03-12 16:16:00,76.7,30.0,29.99,WSW,241,5.0,15.0,18,0.00,,,0.00,Wunderground v.1.15,2013-03-12 21:16:00,
2013-03-12 16:18:00,76.7,28.6,29.99,WSW,248,6.0,15.0,17,0.00,,,0.00,Wunderground v.1.15,2013-03-12 21:18:00,
2013-03-12 16:19:00,76.7,30.0,29.99,WSW,251,6.0,15.0,18,0.00,,,0.00,Wunderground v.1.15,2013-03-12 21:19:00,
2013-03-12 16:23:00,76.3,29.7,29.99,West,270,7.0,13.0,18,0.00,,,0.00,Wunderground v.1.15,2013-03-12 21:23:00,
2013-03-12 16:25:00,76.3,29.7,29.99,WSW,240,8.0,13.0,18,0.00,,,0.00,Wunderground v.1.15,2013-03-12 21:25:00,
2013-03-12 16:27:00,76.5,29.8,29.99,SSE,165,7.0,13.0,18,0.00,,,0.00,Wunderground v.1.15,2013-03-12 21:27:00,
2013-03-12 16:28:00,76.7,30.0,29.99,WSW,237,7.0,13.0,18,0.00,,,0.00,Wunderground v.1.15,2013-03-12 21:28:00,
2013-03-12 16:33:00,77.2,30.4,29.99,West,260,5.0,13.0,18,0.00,,,0.00,Wunderground v.1.15,2013-03-12 21:33:00,
2013-03-12 16:36:00,77.0,30.2,29.99,SW,227,6.0,13.0,18,0.00,,,0.00,Wunderground v.1.15,2013-03-12 21:36:00,
2013-03-12 16:37:00,77.2,30.4,29.99,South,175,6.0,13.0,18,0.00,,,0.00,Wunderground v.1.15,2013-03-12 21:37:00,
2013-03-12 16:39:00,77.2,29.0,29.99,SSW,208,6.0,13.0,17,0.00,,,0.00,Wunderground v.1.15,2013-03-12 21:39:00,
2013-03-12 16:41:00,77.2,29.0,29.99,SSW,212,7.0,7.0,17,0.00,,,0.00,Wunderground v.1.15,2013-03-12 21:41:00,
2013-03-12 16:43:00,77.2,29.0,29.99,South,181,6.0,13.0,17,0.00,,,0.00,Wunderground v.1.15,2013-03-12 21:43:00,
2013-03-12 16:46:00,77.2,29.0,29.99,WSW,251,7.0,13.0,17,0.00,,,0.00,Wunderground v.1.15,2013-03-12 21:46:00,
2013-03-12 16:48:00,77.4,30.5,29.99,SW,215,7.0,13.0,18,0.00,,,0.00,Wunderground v.1.15,2013-03-12 21:48:00,
2013-03-12 16:52:00,77.7,27.9,29.99,South,179,7.0,14.0,16,0.00,,,0.00,Wunderground v.1.15,2013-03-12 21:52:00,
2013-03-12 16:56:00,77.6,29.3,29.99,West,274,5.0,14.0,17,0.00,,,0.00,Wunderground v.1.15,2013-03-12 21:56:00,
2013-03-12 16:58:00,77.4,27.7,29.99,SSW,212,6.0,14.0,16,0.00,,,0.00,Wunderground v.1.15,2013-03-12 21:58:00,
2013-03-12 16:59:00,77.4,27.7,29.99,SSW,200,6.0,14.0,16,0.00,,,0.00,Wunderground v.1.15,2013-03-12 21:59:00,
2013-03-12 17:01:00,77.4,29.1,29.99,South,189,6.0,15.0,17,0.00,,,0.00,Wunderground v.1.15,2013-03-12 22:01:00,
2013-03-12 17:04:00,77.4,29.1,29.99,WSW,243,7.0,15.0,17,0.00,,,0.00,Wunderground v.1.15,2013-03-12 22:04:00,
2013-03-12 17:05:00,77.4,29.1,29.99,South,189,7.0,15.0,17,0.00,,,0.00,Wunderground v.1.15,2013-03-12 22:05:00,
2013-03-12 17:07:00,77.6,27.8,29.99,South,191,6.0,15.0,16,0.00,,,0.00,Wunderground v.1.15,2013-03-12 22:07:00,
2013-03-12 17:08:00,77.6,27.8,29.99,SSW,193,6.0,15.0,16,0.00,,,0.00,Wunderground v.1.15,2013-03-12 22:08:00,
2013-03-12 17:12:00,77.9,28.1,29.99,SW,215,5.0,13.0,16,0.00,,,0.00,Wunderground v.1.15,2013-03-12 22:12:00,
2013-03-12 17:15:00,77.9,28.1,29.99,WSW,241,5.0,13.0,16,0.00,,,0.00,Wunderground v.1.15,2013-03-12 22:15:00,
2013-03-12 17:17:00,77.7,27.9,29.99,SW,220,5.0,13.0,16,0.00,,,0.00,Wunderground v.1.15,2013-03-12 22:17:00,
2013-03-12 17:18:00,77.7,27.9,29.99,WSW,257,5.0,13.0,16,0.00,,,0.00,Wunderground v.1.15,2013-03-12 22:18:00,
2013-03-12 17:21:00,77.7,27.9,29.99,WSW,247,6.0,11.0,16,0.00,,,0.00,Wunderground v.1.15,2013-03-12 22:21:00,
2013-03-12 17:22:00,77.6,27.8,29.99,WSW,240,6.0,11.0,16,0.00,,,0.00,Wunderground v.1.15,2013-03-12 22:22:00,
2013-03-12 17:23:00,77.6,27.8,29.99,WSW,241,6.0,11.0,16,0.00,,,0.00,Wunderground v.1.15,2013-03-12 22:23:00,
2013-03-12 17:27:00,77.7,27.9,29.99,SSE,158,5.0,11.0,16,0.00,,,0.00,Wunderground v.1.15,2013-03-12 22:27:00,
2013-03-12 17:28:00,77.7,27.9,29.99,South,176,5.0,11.0,16,0.00,,,0.00,Wunderground v.1.15,2013-03-12 22:28:00,
2013-03-12 17:32:00,77.2,27.5,29.99,SSE,152,4.0,12.0,16,0.00,,,0.00,Wunderground v.1.15,2013-03-12 22:32:00,
2013-03-12 17:33:00,77.2,27.5,29.99,SSE,148,4.0,12.0,16,0.00,,,0.00,Wunderground v.1.15,2013-03-12 22:33:00,
2013-03-12 17:35:00,77.0,27.3,29.99,SE,133,5.0,12.0,16,0.00,,,0.00,Wunderground v.1.15,2013-03-12 22:35:00,
2013-03-12 17:38:00,77.2,27.5,29.99,WSW,250,4.0,12.0,16,0.00,,,0.00,Wunderground v.1.15,2013-03-12 22:38:00,
2013-03-12 17:39:00,77.4,27.7,29.99,SSW,212,5.0,12.0,16,0.00,,,0.00,Wunderground v.1.15,2013-03-12 22:39:00,
2013-03-12 17:41:00,77.6,27.8,29.99,SSW,206,5.0,13.0,16,0.00,,,0.00,Wunderground v.1.15,2013-03-12 22:41:00,
2013-03-12 17:42:00,77.6,27.8,29.99,WSW,237,5.0,13.0,16,0.00,,,0.00,Wunderground v.1.15,2013-03-12 22:42:00,
2013-03-12 17:44:00,77.7,27.9,29.99,SW,215,5.0,13.0,16,0.00,,,0.00,Wunderground v.1.15,2013-03-12 22:44:00,
2013-03-12 17:47:00,77.9,28.1,29.99,South,188,5.0,13.0,16,0.00,,,0.00,Wunderground v.1.15,2013-03-12 22:47:00,
2013-03-12 17:48:00,78.1,28.2,29.99,South,191,4.0,13.0,16,0.00,,,0.00,Wunderground v.1.15,2013-03-12 22:48:00,
2013-03-12 17:51:00,78.1,28.2,29.99,WSW,246,4.0,4.0,16,0.00,,,0.00,Wunderground v.1.15,2013-03-12 22:51:00,
2013-03-12 17:52:00,78.1,28.2,29.99,WSW,246,4.0,6.0,16,0.00,,,0.00,Wunderground v.1.15,2013-03-12 22:52:00,
2013-03-12 17:53:00,78.1,28.2,29.99,SW,227,3.0,11.0,16,0.00,,,0.00,Wunderground v.1.15,2013-03-12 22:53:00,
2013-03-12 17:54:00,78.1,28.2,29.99,SW,234,4.0,11.0,16,0.00,,,0.00,Wunderground v.1.15,2013-03-12 22:54:00,
2013-03-12 17:59:00,78.1,28.2,29.99,South,169,4.0,11.0,16,0.00,,,0.00,Wunderground v.1.15,2013-03-12 22:59:00,
2013-03-12 18:00:00,77.9,28.1,29.99,SSE,162,3.0,9.0,16,0.00,,,0.00,Wunderground v.1.15,2013-03-12 23:00:00,
2013-03-12 18:03:00,77.7,27.9,29.99,South,176,3.0,9.0,16,0.00,,,0.00,Wunderground v.1.15,2013-03-12 23:03:00,
2013-03-12 18:04:00,77.6,27.8,29.99,SE,145,3.0,9.0,16,0.00,,,0.00,Wunderground v.1.15,2013-03-12 23:04:00,
2013-03-12 18:06:00,77.4,27.7,29.99,SE,145,3.0,9.0,16,0.00,,,0.00,Wunderground v.1.15,2013-03-12 23:06:00,
2013-03-12 18:07:00,77.4,27.7,29.99,SSE,158,3.0,9.0,16,0.00,,,0.00,Wunderground v.1.15,2013-03-12 23:07:00,
2013-03-12 18:10:00,77.2,29.0,29.99,South,186,3.0,3.0,17,0.00,,,0.00,Wunderground v.1.15,2013-03-12 23:10:00,
2013-03-12 18:12:00,77.2,29.0,29.99,SW,220,3.0,8.0,17,0.00,,,0.00,Wunderground v.1.15,2013-03-12 23:12:00,
2013-03-12 18:15:00,77.6,27.8,29.99,SSW,210,3.0,8.0,16,0.00,,,0.00,Wunderground v.1.15,2013-03-12 23:15:00,
2013-03-12 18:18:00,77.6,27.8,30.00,SSE,155,3.0,8.0,16,0.00,,,0.00,Wunderground v.1.15,2013-03-12 23:18:00,
2013-03-12 18:19:00,77.4,27.7,30.00,SSE,154,3.0,8.0,16,0.00,,,0.00,Wunderground v.1.15,2013-03-12 23:19:00,
2013-03-12 18:21:00,77.4,29.1,30.00,South,179,3.0,7.0,17,0.00,,,0.00,Wunderground v.1.15,2013-03-12 23:21:00,
2013-03-12 18:22:00,77.4,29.1,30.00,South,181,3.0,7.0,17,0.00,,,0.00,Wunderground v.1.15,2013-03-12 23:22:00,
2013-03-12 18:24:00,77.2,29.0,30.00,SSE,158,2.0,7.0,17,0.00,,,0.00,Wunderground v.1.15,2013-03-12 23:24:00,
2013-03-12 18:26:00,77.0,28.8,30.00,South,176,3.0,7.0,17,0.00,,,0.00,Wunderground v.1.15,2013-03-12 23:26:00,
2013-03-12 18:27:00,77.0,28.8,30.00,South,178,3.0,7.0,17,0.00,,,0.00,Wunderground v.1.15,2013-03-12 23:27:00,
2013-03-12 18:29:00,76.8,28.7,30.00,South,174,3.0,7.0,17,0.00,,,0.00,Wunderground v.1.15,2013-03-12 23:29:00,
2013-03-12 18:31:00,76.8,28.7,30.00,South,181,3.0,3.0,17,0.00,,,0.00,Wunderground v.1.15,2013-03-12 23:31:00,
2013-03-12 18:34:00,77.2,30.4,30.00,South,189,3.0,8.0,18,0.00,,,0.00,Wunderground v.1.15,2013-03-12 23:34:00,
2013-03-12 18:35:00,77.2,29.0,30.00,South,189,2.0,8.0,17,0.00,,,0.00,Wunderground v.1.15,2013-03-12 23:35:00,
2013-03-12 18:38:00,77.4,29.1,30.00,South,191,2.0,8.0,17,0.00,,,0.00,Wunderground v.1.15,2013-03-12 23:38:00,
2013-03-12 18:41:00,77.4,29.1,30.00,South,188,1.0,1.0,17,0.00,,,0.00,Wunderground v.1.15,2013-03-12 23:41:00,
2013-03-12 18:44:00,77.6,27.8,30.00,South,188,1.0,7.0,16,0.00,,,0.00,Wunderground v.1.15,2013-03-12 23:44:00,
2013-03-12 18:46:00,77.7,27.9,30.01,SSW,209,1.0,7.0,16,0.00,,,0.00,Wunderground v.1.15,2013-03-12 23:46:00,
2013-03-12 18:47:00,77.9,28.1,30.01,WSW,241,1.0,7.0,16,0.00,,,0.00,Wunderground v.1.15,2013-03-12 23:47:00,
2013-03-12 18:51:00,77.6,27.8,30.01,WSW,254,2.0,6.0,16,0.00,,,0.00,Wunderground v.1.15,2013-03-12 23:51:00,
2013-03-12 18:52:00,77.6,27.8,30.01,WSW,254,3.0,6.0,16,0.00,,,0.00,Wunderground v.1.15,2013-03-12 23:52:00,
2013-03-12 18:54:00,77.4,27.7,30.01,WSW,254,3.0,6.0,16,0.00,,,0.00,Wunderground v.1.15,2013-03-12 23:54:00,
2013-03-12 18:56:00,77.4,27.7,30.01,WSW,254,3.0,6.0,16,0.00,,,0.00,Wunderground v.1.15,2013-03-12 23:56:00,
2013-03-12 18:57:00,77.4,27.7,30.01,WSW,254,2.0,6.0,16,0.00,,,0.00,Wunderground v.1.15,2013-03-12 23:57:00,
2013-03-12 19:01:00,77.4,29.1,30.01,SSW,208,1.0,8.0,17,0.00,,,0.00,Wunderground v.1.15,2013-03-13 00:01:00,
2013-03-12 19:03:00,77.4,29.1,30.01,SSW,208,1.0,8.0,17,0.00,,,0.00,Wunderground v.1.15,2013-03-13 00:03:00,
2013-03-12 19:05:00,77.4,29.1,30.01,SSW,208,1.0,8.0,17,0.00,,,0.00,Wunderground v.1.15,2013-03-13 00:05:00,
2013-03-12 19:08:00,77.4,30.5,30.01,SSW,208,1.0,8.0,18,0.00,,,0.00,Wunderground v.1.15,2013-03-13 00:08:00,
2013-03-12 19:09:00,77.2,29.0,30.01,SSW,208,1.0,8.0,17,0.00,,,0.00,Wunderground v.1.15,2013-03-13 00:09:00,
2013-03-12 19:12:00,76.8,30.1,30.01,SSW,206,0.0,6.0,18,0.00,,,0.00,Wunderground v.1.15,2013-03-13 00:12:00,
2013-03-12 19:13:00,76.7,28.6,30.01,South,179,1.0,6.0,17,0.00,,,0.00,Wunderground v.1.15,2013-03-13 00:13:00,
2013-03-12 19:16:00,76.1,29.5,30.02,South,179,1.0,6.0,18,0.00,,,0.00,Wunderground v.1.15,2013-03-13 00:16:00,
2013-03-12 19:17:00,76.0,29.4,30.02,South,179,1.0,6.0,18,0.00,,,0.00,Wunderground v.1.15,2013-03-13 00:17:00,
2013-03-12 19:18:00,76.0,29.4,30.02,South,179,2.0,6.0,18,0.00,,,0.00,Wunderground v.1.15,2013-03-13 00:18:00,
2013-03-12 19:19:00,75.8,29.2,30.02,South,179,2.0,6.0,18,0.00,,,0.00,Wunderground v.1.15,2013-03-13 00:19:00,
2013-03-12 19:22:00,75.6,29.1,30.02,South,179,1.0,4.0,18,0.00,,,0.00,Wunderground v.1.15,2013-03-13 00:22:00,
2013-03-12 19:24:00,75.4,28.9,30.02,South,179,1.0,4.0,18,0.00,,,0.00,Wunderground v.1.15,2013-03-13 00:24:00,
2013-03-12 19:25:00,75.3,30.2,30.02,South,179,1.0,4.0,19,0.00,,,0.00,Wunderground v.1.15,2013-03-13 00:25:00,
2013-03-12 19:27:00,75.1,30.0,30.02,South,179,0.0,4.0,19,0.00,,,0.00,Wunderground v.1.15,2013-03-13 00:27:00,
2013-03-12 19:31:00,74.7,29.7,30.02,South,179,0.0,5.0,19,0.00,,,0.00,Wunderground v.1.15,2013-03-13 00:31:00,
2013-03-12 19:34:00,74.6,30.9,30.02,South,179,0.0,5.0,20,0.00,,,0.00,Wunderground v.1.15,2013-03-13 00:34:00,
2013-03-12 19:35:00,74.4,30.7,30.02,South,179,0.0,5.0,20,0.00,,,0.00,Wunderground v.1.15,2013-03-13 00:35:00,
2013-03-12 19:36:00,74.4,30.7,30.02,South,179,0.0,5.0,20,0.00,,,0.00,Wunderground v.1.15,2013-03-13 00:36:00,
2013-03-12 19:41:00,74.0,30.4,30.02,South,179,0.0,5.0,20,0.00,,,0.00,Wunderground v.1.15,2013-03-13 00:41:00,
2013-03-12 19:45:00,73.7,31.3,30.02,South,179,0.0,2.0,21,0.00,,,0.00,Wunderground v.1.15,2013-03-13 00:45:00,
2013-03-12 19:46:00,73.5,31.1,30.03,South,179,0.0,2.0,21,0.00,,,0.00,Wunderground v.1.15,2013-03-13 00:46:00,
2013-03-12 19:48:00,73.3,31.0,30.03,South,179,0.0,2.0,21,0.00,,,0.00,Wunderground v.1.15,2013-03-13 00:48:00,
2013-03-12 19:49:00,73.2,30.9,30.03,South,179,0.0,2.0,21,0.00,,,0.00,Wunderground v.1.15,2013-03-13 00:49:00,
2013-03-12 19:52:00,72.8,30.6,30.03,South,179,0.0,0.0,21,0.00,,,0.00,Wunderground v.1.15,2013-03-13 00:52:00,
2013-03-12 19:53:00,72.7,31.6,30.03,South,179,0.0,0.0,22,0.00,,,0.00,Wunderground v.1.15,2013-03-13 00:53:00,
2013-03-12 19:54:00,72.5,30.3,30.03,South,179,0.0,0.0,21,0.00,,,0.00,Wunderground v.1.15,2013-03-13 00:54:00,
2013-03-12 19:57:00,72.1,30.0,30.03,South,179,0.0,0.0,21,0.00,,,0.00,Wunderground v.1.15,2013-03-13 00:57:00,
2013-03-12 19:58:00,72.1,30.0,30.03,South,179,0.0,0.0,21,0.00,,,0.00,Wunderground v.1.15,2013-03-13 00:58:00,
2013-03-12 20:00:00,71.8,30.9,30.03,South,179,0.0,0.0,22,0.00,,,0.00,Wunderground v.1.15,2013-03-13 01:00:00,
2013-03-12 20:02:00,71.8,30.9,30.04,South,179,0.0,0.0,22,0.00,,,0.00,Wunderground v.1.15,2013-03-13 01:02:00,
2013-03-12 20:03:00,71.6,30.7,30.04,South,179,0.0,0.0,22,0.00,,,0.00,Wunderground v.1.15,2013-03-13 01:03:00,
2013-03-12 20:04:00,71.6,30.7,30.04,South,179,0.0,0.0,22,0.00,,,0.00,Wunderground v.1.15,2013-03-13 01:04:00,
2013-03-12 20:08:00,71.1,30.3,30.04,South,179,0.0,0.0,22,0.00,,,0.00,Wunderground v.1.15,2013-03-13 01:08:00,
2013-03-12 20:09:00,71.1,30.3,30.04,South,179,0.0,0.0,22,0.00,,,0.00,Wunderground v.1.15,2013-03-13 01:09:00,
2013-03-12 20:10:00,70.9,30.1,30.04,South,179,0.0,0.0,22,0.00,,,0.00,Wunderground v.1.15,2013-03-13 01:10:00,
2013-03-12 20:14:00,70.6,31.0,30.04,South,179,0.0,0.0,23,0.00,,,0.00,Wunderground v.1.15,2013-03-13 01:14:00,
2013-03-12 20:15:00,70.4,30.8,30.04,South,179,0.0,0.0,23,0.00,,,0.00,Wunderground v.1.15,2013-03-13 01:15:00,
2013-03-12 20:16:00,70.4,30.8,30.03,South,179,0.0,0.0,23,0.00,,,0.00,Wunderground v.1.15,2013-03-13 01:16:00,
2013-03-12 20:17:00,70.3,30.7,30.03,South,179,0.0,0.0,23,0.00,,,0.00,Wunderground v.1.15,2013-03-13 01:17:00,
2013-03-12 20:21:00,70.1,31.6,30.03,South,179,0.0,0.0,24,0.00,,,0.00,Wunderground v.1.15,2013-03-13 01:21:00,
2013-03-12 20:22:00,69.9,31.4,30.03,South,179,0.0,0.0,24,0.00,,,0.00,Wunderground v.1.15,2013-03-13 01:22:00,
2013-03-12 20:24:00,69.8,31.4,30.03,South,179,0.0,0.0,24,0.00,,,0.00,Wunderground v.1.15,2013-03-13 01:24:00,
2013-03-12 20:27:00,69.4,31.0,30.03,South,179,0.0,0.0,24,0.00,,,0.00,Wunderground v.1.15,2013-03-13 01:27:00,
2013-03-12 20:31:00,69.1,30.8,30.04,South,179,0.0,0.0,24,0.00,,,0.00,Wunderground v.1.15,2013-03-13 01:31:00,
2013-03-12 20:33:00,68.9,30.6,30.04,South,179,0.0,0.0,24,0.00,,,0.00,Wunderground v.1.15,2013-03-13 01:33:00,
2013-03-12 20:35:00,68.9,31.6,30.04,South,179,0.0,0.0,25,0.00,,,0.00,Wunderground v.1.15,2013-03-13 01:35:00,
2013-03-12 20:39:00,68.6,31.3,30.04,South,179,0.0,0.0,25,0.00,,,0.00,Wunderground v.1.15,2013-03-13 01:39:00,
2013-03-12 20:42:00,68.4,31.2,30.04,South,179,0.0,0.0,25,0.00,,,0.00,Wunderground v.1.15,2013-03-13 01:42:00,
2013-03-12 20:44:00,68.3,31.1,30.04,South,179,0.0,0.0,25,0.00,,,0.00,Wunderground v.1.15,2013-03-13 01:44:00,
2013-03-12 20:45:00,68.3,31.1,30.04,South,179,0.0,0.0,25,0.00,,,0.00,Wunderground v.1.15,2013-03-13 01:45:00,
2013-03-12 20:47:00,68.1,30.9,30.05,South,179,0.0,0.0,25,0.00,,,0.00,Wunderground v.1.15,2013-03-13 01:47:00,
2013-03-12 20:49:00,67.9,31.7,30.05,South,179,0.0,0.0,26,0.00,,,0.00,Wunderground v.1.15,2013-03-13 01:49:00,
2013-03-12 20:50:00,67.8,31.6,30.05,South,179,0.0,0.0,26,0.00,,,0.00,Wunderground v.1.15,2013-03-13 01:50:00,
2013-03-12 20:52:00,67.8,31.6,30.05,South,179,0.0,0.0,26,0.00,,,0.00,Wunderground v.1.15,2013-03-13 01:52:00,
2013-03-12 20:58:00,67.3,31.2,30.05,South,179,0.0,0.0,26,0.00,,,0.00,Wunderground v.1.15,2013-03-13 01:58:00,
2013-03-12 20:59:00,67.3,31.2,30.05,South,179,0.0,0.0,26,0.00,,,0.00,Wunderground v.1.15,2013-03-13 01:59:00,
2013-03-12 21:03:00,67.1,31.0,30.05,South,179,0.0,0.0,26,0.00,,,0.00,Wunderground v.1.15,2013-03-13 02:03:00,
2013-03-12 21:04:00,66.9,30.9,30.05,South,179,0.0,0.0,26,0.00,,,0.00,Wunderground v.1.15,2013-03-13 02:04:00,
2013-03-12 21:07:00,66.8,31.7,30.05,South,179,0.0,0.0,27,0.00,,,0.00,Wunderground v.1.15,2013-03-13 02:07:00,
2013-03-12 21:08:00,66.8,30.8,30.05,South,179,0.0,0.0,26,0.00,,,0.00,Wunderground v.1.15,2013-03-13 02:08:00,
2013-03-12 21:12:00,66.6,30.6,30.05,South,179,0.0,0.0,26,0.00,,,0.00,Wunderground v.1.15,2013-03-13 02:12:00,
2013-03-12 21:13:00,66.4,30.4,30.05,South,179,0.0,0.0,26,0.00,,,0.00,Wunderground v.1.15,2013-03-13 02:13:00,
2013-03-12 21:14:00,66.4,30.4,30.05,South,179,0.0,0.0,26,0.00,,,0.00,Wunderground v.1.15,2013-03-13 02:14:00,
2013-03-12 21:15:00,66.4,30.4,30.05,South,179,0.0,0.0,26,0.00,,,0.00,Wunderground v.1.15,2013-03-13 02:15:00,
2013-03-12 21:18:00,66.3,31.3,30.05,South,179,0.0,0.0,27,0.00,,,0.00,Wunderground v.1.15,2013-03-13 02:18:00,
2013-03-12 21:19:00,66.3,31.3,30.05,South,179,0.0,0.0,27,0.00,,,0.00,Wunderground v.1.15,2013-03-13 02:19:00,
2013-03-12 21:21:00,66.1,31.1,30.05,South,179,0.0,0.0,27,0.00,,,0.00,Wunderground v.1.15,2013-03-13 02:21:00,
2013-03-12 21:24:00,66.0,31.9,30.05,South,179,0.0,0.0,28,0.00,,,0.00,Wunderground v.1.15,2013-03-13 02:24:00,
2013-03-12 21:25:00,66.0,31.0,30.05,South,179,0.0,0.0,27,0.00,,,0.00,Wunderground v.1.15,2013-03-13 02:25:00,
2013-03-12 21:26:00,65.8,30.9,30.05,South,179,0.0,0.0,27,0.00,,,0.00,Wunderground v.1.15,2013-03-13 02:26:00,
2013-03-12 21:31:00,65.5,31.5,30.06,South,179,0.0,0.0,28,0.00,,,0.00,Wunderground v.1.15,2013-03-13 02:31:00,
2013-03-12 21:32:00,65.5,31.5,30.06,South,179,0.0,0.0,28,0.00,,,0.00,Wunderground v.1.15,2013-03-13 02:32:00,
2013-03-12 21:33:00,65.3,31.3,30.06,South,179,0.0,0.0,28,0.00,,,0.00,Wunderground v.1.15,2013-03-13 02:33:00,
2013-03-12 21:37:00,65.2,31.2,30.06,South,179,0.0,0.0,28,0.00,,,0.00,Wunderground v.1.15,2013-03-13 02:37:00,
2013-03-12 21:39:00,65.0,31.1,30.06,South,179,0.0,0.0,28,0.00,,,0.00,Wunderground v.1.15,2013-03-13 02:39:00,
2013-03-12 21:41:00,64.8,30.9,30.06,South,179,0.0,0.0,28,0.00,,,0.00,Wunderground v.1.15,2013-03-13 02:41:00,
2013-03-12 21:43:00,64.8,30.9,30.06,South,179,0.0,0.0,28,0.00,,,0.00,Wunderground v.1.15,2013-03-13 02:43:00,
2013-03-12 21:45:00,64.7,30.8,30.06,South,179,0.0,0.0,28,0.00,,,0.00,Wunderground v.1.15,2013-03-13 02:45:00,
2013-03-12 21:47:00,64.7,30.8,30.06,South,179,0.0,0.0,28,0.00,,,0.00,Wunderground v.1.15,2013-03-13 02:47:00,
2013-03-12 21:48:00,64.5,31.5,30.06,South,179,0.0,0.0,29,0.00,,,0.00,Wunderground v.1.15,2013-03-13 02:48:00,
2013-03-12 21:51:00,64.3,31.3,30.06,South,179,0.0,0.0,29,0.00,,,0.00,Wunderground v.1.15,2013-03-13 02:51:00,
2013-03-12 21:52:00,64.3,31.3,30.06,South,179,0.0,0.0,29,0.00,,,0.00,Wunderground v.1.15,2013-03-13 02:52:00,
2013-03-12 21:53:00,64.2,31.3,30.06,South,179,0.0,0.0,29,0.00,,,0.00,Wunderground v.1.15,2013-03-13 02:53:00,
2013-03-12 21:55:00,64.2,31.3,30.06,South,179,0.0,0.0,29,0.00,,,0.00,Wunderground v.1.15,2013-03-13 02:55:00,
2013-03-12 21:58:00,63.9,31.0,30.06,South,179,0.0,0.0,29,0.00,,,0.00,Wunderground v.1.15,2013-03-13 02:58:00,
2013-03-12 21:59:00,63.9,31.0,30.06,South,179,0.0,0.0,29,0.00,,,0.00,Wunderground v.1.15,2013-03-13 02:59:00,
2013-03-12 22:01:00,63.9,31.0,30.07,South,179,0.0,0.0,29,0.00,,,0.00,Wunderground v.1.15,2013-03-13 03:01:00,
2013-03-12 22:03:00,63.7,30.0,30.07,South,179,0.0,0.0,28,0.00,,,0.00,Wunderground v.1.15,2013-03-13 03:03:00,
2013-03-12 22:05:00,63.5,29.8,30.07,South,179,0.0,0.0,28,0.00,,,0.00,Wunderground v.1.15,2013-03-13 03:05:00,
2013-03-12 22:06:00,63.5,29.8,30.07,South,179,0.0,0.0,28,0.00,,,0.00,Wunderground v.1.15,2013-03-13 03:06:00,
2013-03-12 22:08:00,63.4,29.7,30.07,South,179,0.0,0.0,28,0.00,,,0.00,Wunderground v.1.15,2013-03-13 03:08:00,
2013-03-12 22:11:00,63.4,29.7,30.07,South,179,0.0,0.0,28,0.00,,,0.00,Wunderground v.1.15,2013-03-13 03:11:00,
2013-03-12 22:12:00,63.4,29.7,30.07,South,179,0.0,0.0,28,0.00,,,0.00,Wunderground v.1.15,2013-03-13 03:12:00,
2013-03-12 22:13:00,63.4,29.7,30.07,South,179,0.0,0.0,28,0.00,,,0.00,Wunderground v.1.15,2013-03-13 03:13:00,
2013-03-12 22:17:00,63.4,28.8,30.07,South,179,0.0,0.0,27,0.00,,,0.00,Wunderground v.1.15,2013-03-13 03:17:00,
2013-03-12 22:18:00,63.4,28.8,30.07,South,179,0.0,0.0,27,0.00,,,0.00,Wunderground v.1.15,2013-03-13 03:18:00,
2013-03-12 22:19:00,63.5,28.9,30.07,South,179,0.0,0.0,27,0.00,,,0.00,Wunderground v.1.15,2013-03-13 03:19:00,
2013-03-12 22:22:00,63.7,30.0,30.07,South,179,0.0,0.0,28,0.00,,,0.00,Wunderground v.1.15,2013-03-13 03:22:00,
2013-03-12 22:24:00,63.9,29.2,30.07,South,179,0.0,0.0,27,0.00,,,0.00,Wunderground v.1.15,2013-03-13 03:24:00,
2013-03-12 22:29:00,63.9,30.1,30.07,South,179,0.0,0.0,28,0.00,,,0.00,Wunderground v.1.15,2013-03-13 03:29:00,
2013-03-12 22:30:00,63.7,30.8,30.07,South,179,0.0,1.0,29,0.00,,,0.00,Wunderground v.1.15,2013-03-13 03:30:00,
2013-03-12 22:31:00,63.7,30.0,30.09,South,179,0.0,1.0,28,0.00,,,0.00,Wunderground v.1.15,2013-03-13 03:31:00,
2013-03-12 22:35:00,63.2,31.2,30.09,SSE,158,1.0,4.0,30,0.00,,,0.00,Wunderground v.1.15,2013-03-13 03:35:00,
2013-03-12 22:37:00,63.1,31.9,30.09,SSE,162,1.0,4.0,31,0.00,,,0.00,Wunderground v.1.15,2013-03-13 03:37:00,
2013-03-12 22:38:00,63.1,31.9,30.09,SE,143,1.0,4.0,31,0.00,,,0.00,Wunderground v.1.15,2013-03-13 03:38:00,
2013-03-12 22:39:00,63.1,31.9,30.09,SSE,167,1.0,5.0,31,0.00,,,0.00,Wunderground v.1.15,2013-03-13 03:39:00,
2013-03-12 22:41:00,63.1,33.5,30.09,SSE,151,2.0,3.0,33,0.00,,,0.00,Wunderground v.1.15,2013-03-13 03:41:00,
2013-03-12 22:43:00,63.2,34.3,30.09,SSE,151,2.0,4.0,34,0.00,,,0.00,Wunderground v.1.15,2013-03-13 03:43:00,
2013-03-12 22:47:00,63.4,36.0,30.10,SSE,148,3.0,7.0,36,0.00,,,0.00,Wunderground v.1.15,2013-03-13 03:47:00,
2013-03-12 22:48:00,63.4,36.7,30.10,SE,133,3.0,7.0,37,0.00,,,0.00,Wunderground v.1.15,2013-03-13 03:48:00,
2013-03-12 22:49:00,63.4,37.3,30.10,SSE,155,3.0,7.0,38,0.00,,,0.00,Wunderground v.1.15,2013-03-13 03:49:00,
2013-03-12 22:51:00,63.4,37.3,30.10,ESE,121,4.0,8.0,38,0.00,,,0.00,Wunderground v.1.15,2013-03-13 03:51:00,
2013-03-12 22:54:00,63.4,38.0,30.10,SE,141,4.0,8.0,39,0.00,,,0.00,Wunderground v.1.15,2013-03-13 03:54:00,
2013-03-12 22:55:00,63.4,38.0,30.10,SSE,157,4.0,8.0,39,0.00,,,0.00,Wunderground v.1.15,2013-03-13 03:55:00,
2013-03-12 22:58:00,63.4,39.3,30.10,SE,145,4.0,8.0,41,0.00,,,0.00,Wunderground v.1.15,2013-03-13 03:58:00,
2013-03-12 23:01:00,63.2,39.1,30.11,SE,145,3.0,3.0,41,0.00,,,0.00,Wunderground v.1.15,2013-03-13 04:01:00,
2013-03-12 23:02:00,63.1,39.0,30.11,SE,145,3.0,9.0,41,0.00,,,0.00,Wunderground v.1.15,2013-03-13 04:02:00,
2013-03-12 23:05:00,63.1,40.2,30.11,South,179,3.0,9.0,43,0.00,,,0.00,Wunderground v.1.15,2013-03-13 04:05:00,
2013-03-12 23:06:00,63.1,40.2,30.11,SSE,152,3.0,9.0,43,0.00,,,0.00,Wunderground v.1.15,2013-03-13 04:06:00,
2013-03-12 23:07:00,62.9,40.0,30.11,South,172,3.0,9.0,43,0.00,,,0.00,Wunderground v.1.15,2013-03-13 04:07:00,
2013-03-12 23:09:00,62.9,40.6,30.11,SSE,164,3.0,9.0,44,0.00,,,0.00,Wunderground v.1.15,2013-03-13 04:09:00,
2013-03-12 23:13:00,62.7,41.0,30.11,SSE,157,4.0,7.0,45,0.00,,,0.00,Wunderground v.1.15,2013-03-13 04:13:00,
2013-03-12 23:15:00,62.7,41.0,30.11,South,169,4.0,8.0,45,0.00,,,0.00,Wunderground v.1.15,2013-03-13 04:15:00,
2013-03-12 23:17:00,62.7,41.6,30.11,SW,217,4.0,10.0,46,0.00,,,0.00,Wunderground v.1.15,2013-03-13 04:17:00,
2013-03-12 23:19:00,62.7,41.6,30.11,South,182,5.0,10.0,46,0.00,,,0.00,Wunderground v.1.15,2013-03-13 04:19:00,
2013-03-12 23:21:00,62.6,41.5,30.11,South,179,5.0,13.0,46,0.00,,,0.00,Wunderground v.1.15,2013-03-13 04:21:00,
2013-03-12 23:24:00,62.3,41.8,30.11,South,185,5.0,13.0,47,0.00,,,0.00,Wunderground v.1.15,2013-03-13 04:24:00,
2013-03-12 23:27:00,62.1,41.6,30.11,South,182,4.0,13.0,47,0.00,,,0.00,Wunderground v.1.15,2013-03-13 04:27:00,
2013-03-12 23:28:00,62.1,41.6,30.11,SSE,160,4.0,13.0,47,0.00,,,0.00,Wunderground v.1.15,2013-03-13 04:28:00,
2013-03-12 23:31:00,62.0,42.1,30.12,South,189,4.0,11.0,48,0.00,,,0.00,Wunderground v.1.15,2013-03-13 04:31:00,
2013-03-12 23:32:00,61.8,41.9,30.12,South,189,4.0,11.0,48,0.00,,,0.00,Wunderground v.1.15,2013-03-13 04:32:00,
2013-03-12 23:33:00,61.8,41.9,30.12,South,171,3.0,11.0,48,0.00,,,0.00,Wunderground v.1.15,2013-03-13 04:33:00,
2013-03-12 23:37:00,61.6,42.2,30.12,South,178,4.0,11.0,49,0.00,,,0.00,Wunderground v.1.15,2013-03-13 04:37:00,
2013-03-12 23:39:00,61.5,42.2,30.12,South,178,4.0,11.0,49,0.00,,,0.00,Wunderground v.1.15,2013-03-13 04:39:00,
2013-03-12 23:42:00,61.3,42.0,30.12,SE,126,4.0,10.0,49,0.00,,,0.00,Wunderground v.1.15,2013-03-13 04:42:00,
2013-03-12 23:43:00,61.2,41.9,30.12,SSE,157,4.0,10.0,49,0.00,,,0.00,Wunderground v.1.15,2013-03-13 04:43:00,
2013-03-12 23:44:00,61.2,42.4,30.12,South,174,4.0,10.0,50,0.00,,,0.00,Wunderground v.1.15,2013-03-13 04:44:00,
2013-03-12 23:45:00,61.2,42.4,30.12,South,174,4.0,10.0,50,0.00,,,0.00,Wunderground v.1.15,2013-03-13 04:45:00,
2013-03-12 23:48:00,61.0,42.2,30.13,South,179,3.0,10.0,50,0.00,,,0.00,Wunderground v.1.15,2013-03-13 04:48:00,
2013-03-12 23:49:00,60.9,42.1,30.13,South,178,3.0,10.0,50,0.00,,,0.00,Wunderground v.1.15,2013-03-13 04:49:00,
2013-03-12 23:53:00,60.7,41.9,30.13,South,175,4.0,11.0,50,0.00,,,0.00,Wunderground v.1.15,2013-03-13 04:53:00,
2013-03-12 23:54:00,60.7,41.9,30.13,South,189,4.0,11.0,50,0.00,,,0.00,Wunderground v.1.15,2013-03-13 04:54:00,
2013-03-12 23:57:00,60.5,42.3,30.13,South,189,3.0,11.0,51,0.00,,,0.00,Wunderground v.1.15,2013-03-13 04:57:00,
2013-03-12 23:58:00,60.4,42.2,30.13,South,189,3.0,11.0,51,0.00,,,0.00,Wunderground v.1.15,2013-03-13 04:58:00,